ALTA VALTELLINA BIKE MARATHON
Data sabato 29 luglio 2017
Gara Marathon (id:127491)
Categoria Generale
Classifica generale
[Link] FCI : 127491 Tipo di gara: (XCM N) Marathon
Organizzazione: 02K3574 ALTA VALTELLINA BIKE asd PROVVISORIA
pos pett. atleta sex cat. [Link] team naz race time real time gap medi
a
1 3 RAGNOLI JURI M EL 1 SCOTT RACING TEAM ITA 04:03:49 04:03:45 22.89
2 7 PORRO SAMUELE M EL 2 TEAM TREK-SELLE SAN ITA 04:05:00 04:04:54 00:01:12 22.78
MARCO-TONELLO
3 10 RABENSTEINER FABIAN M EL 3 TEAM TREK-SELLE SAN ITA 04:06:46 04:06:38 00:02:57 22.61
MARCO-TONELLO
4 4 SALERNO CRISTIANO M EL 4 SCOTT RACING TEAM ITA 04:08:23 04:08:18 00:04:35 22.47
5 16 LONGA MATTIA M EL 5 CANNONDALE RH-RACING ITA 04:08:28 04:08:24 00:04:40 22.46
6 35 HOCHENWARTER UWE M EL 6 CRAFT-ROCKY MOUNTAIN AUT 04:09:52 04:09:48 00:06:04 22.33
FACTORY TEAM
7 8 CHIARINI RICCARDO M EL 7 TEAM NOB SELLE ITALIA ITA 04:12:36 04:12:29 00:08:47 22.09
8 39 RAUCHFUSS MAREK M EL 8 KELLYS BIKERANCH CZE 04:15:24 04:15:20 00:11:36 21.85
9 12 FAVILLI ELIA M EL 9 BIKE INNOVATION | FOCUS | ITA 04:17:50 04:17:41 00:14:01 21.64
PISSEI
10 11 SARAI PIETRO M EL 10 POLIMEDICAL-FRM ITA 04:20:02 04:19:58 00:16:14 21.46
11 28 MICHALEK MARIUSZ M EL 11 UCI MTB TEAM JBG-2 POL 04:21:12 04:21:09 00:17:24 21.36
PROFESSIONAL MTB TEAM
12 58 BRZOZKA PIOTR M EL 12 UCI MTB TEAM JBG-2 POL 04:21:12 04:21:09 00:17:24 21.36
PROFESSIONAL MTB TEAM
13 22 DEHO MARZIO M EL 13 [Link] OLYMPIA ITA 04:21:59 04:21:53 00:18:10 21.30
14 43 HALEJAK WOJCIECH M EL 14 UCI MTB TEAM JBG-2 POL 04:27:27 04:27:23 00:23:39 20.86
PROFESSIONAL MTB TEAM
15 31 SAMPARISI LORENZO M EL 15 KTM - PROTEK - DAMA ITA 04:29:35 04:29:27 00:25:47 20.70
16 193 DEPAUL GABRIELE M ELMT 1 TEAM SPACEBIKES ITA 04:29:36 04:29:23 00:25:47 20.70
17 60 DI SALVO GIUSEPPE M EL 16 ASD BAARIA ITA 04:30:21 04:30:15 00:26:32 20.64
18 33 PIASECKI PATRYK M EL 17 UCI MTB TEAM JBG-2 POL 04:30:47 04:30:43 00:26:58 20.61
PROFESSIONAL MTB TEAM
19 18 MEDVEDEV DMITRII M EL 18 TORPADO-SDTIROL MTB PRO RUS 04:32:11 04:32:06 00:28:22 20.50
TEAM
20 44 DAMEK MILAN M EL 19 SK CYCLOSPORT KERN CZE 04:34:10 04:34:05 00:30:21 20.35
21 36 DIVIGGIANO SIMONE M EL 20 KUOTA MARTINA RACING ITA 04:35:24 04:35:19 00:31:36 20.26
A.S.D.
22 194 PANIZ LUCA M M3 1 TEAM SPACEBIKES ITA 04:35:24 04:35:11 00:31:36 20.26
23 45 KOZAK MARIUSZ M EL 21 UCI MTB TEAM JBG-2 POL 04:37:02 04:36:58 00:33:13 20.14
PROFESSIONAL MTB TEAM
24 17 GAMBINO ALESSANDRO M EL 22 FRM FACTORY RACING TEAM ITA 04:37:12 04:37:07 00:33:24 20.13
25 184 PRIANTE FEDERICO M ELMT 2 HAIBIKE LAWLEY FACTORY ITA 04:37:13 04:37:02 00:33:24 20.13
TEAM
26 196 DINALE DAVIDE M M2 1 TEAM SPACEBIKES ITA 04:38:00 04:37:48 00:34:12 20.07
27 183 BELLETTI DAVIDE M M2 2 MX PROJECT ITA 04:38:52 04:38:39 00:35:03 20.01
28 54 VALFRE' GIULIO M EL 23 VIGOR REDMOUNT - FREEDOM ITA 04:39:29 04:39:20 00:35:40 19.97
TO RIDE
29 56 LINETTI SIMONE M EL 24 GRUPPO NULLI ISEO MTB ITA 04:40:41 04:40:35 00:36:53 19.88
A.S.D
30 247 SEGATA CLAUDIO M M3 2 TEAM TODESCO ITA 04:40:58 04:40:35 00:37:10 19.86
31 128 PAVIOLO PAOLO M M3 3 SCOTT RACING TEAM ITA 04:42:51 04:42:39 00:39:02 19.73
32 52 PRETOLANI MARCO M EL 25 TEAM NOB SELLE ITALIA ITA 04:43:29 04:43:21 00:39:40 19.68
33 14 VALDRIGHI STEFANO M EL 26 SOUDAL LEECOUGAN MTB ITA 04:43:30 04:43:22 00:39:41 19.68
RACING TEAM
34 27 PENNA MATTIA M EL 27 ASD SIXS BOSCARO ITA 04:44:10 04:44:01 00:40:21 19.64
35 23 COMOLA ANDREA M EL 28 SILMAX X-BIONIC RACING ITA 04:45:46 04:45:42 00:41:58 19.53
TEAM
36 108 MAIUOLO ALESSANDRO M M2 3 ASD CICLI BATTISTELLA MTB ITA 04:45:47 04:45:36 00:41:59 19.53
37 201 GRESTI MICHELE M M1 1 A.S.D. LE VE'LO ITA 04:46:09 04:45:42 00:42:20 19.50
38 117 BIANCO FEDERICO M ELMT 3 TEAM ECODYGER - CYP A.S.D. ITA 04:46:40 04:46:17 00:42:52 19.47
39 42 DE GIULI FEDERICO M EL 29 HAIBIKE LAWLEY FACTORY ITA 04:46:56 04:46:51 00:43:07 19.45
TEAM
40 175 ZAPPA MARCO M M4 1 WR COMPOSITI RACING A.S.D. ITA 04:47:02 04:46:44 00:43:13 19.44
41 167 REMITTI WALTER M M4 2 BHS TEAM A.S.D. ITA 04:47:35 04:47:24 00:43:47 19.40
42 181 ROVERA LUCA M M3 4 WR COMPOSITI RACING A.S.D. ITA 04:47:38 04:47:25 00:43:50 19.40
43 85 FORNI ALESSANDRO M M2 4 BREN TEAM TRENTO ASD ITA 04:48:22 04:48:00 00:44:34 19.35
44 138 LONATI MATTEO M ELMT 4 MDL RACING CREW A.S.D. ITA 04:48:28 04:48:17 00:44:39 19.34
45 202 CANAL ANDREA M M2 5 ROCK & ROAD BIKE FRT ITA 04:50:01 04:49:49 00:46:12 19.24
46 139 MONTANARI ROBERTO M M3 5 MDL RACING CREW A.S.D. ITA 04:50:01 04:49:51 00:46:12 19.24
47 47 GOGOLEV MAKSIM M EL 30 GBU SHVSM N2 SAMARA RUS 04:50:23 04:50:17 00:46:35 19.22
48 34 BERTELLI LUCA M EL 31 HAIBIKE LAWLEY FACTORY ITA 04:50:25 04:50:17 00:46:37 19.21
TEAM
49 180 COLETTI MATTIA M M1 2 ALTA VALTELLINA BIKE ASD ITA 04:50:33 04:50:16 00:46:45 19.21
Servizio a cura di OTC SRL 29/07/2017 18:40 sigle giudici
[Link] - Classifiche e risultati su ENDU - [Link] Pagina 1 di 22
Classifica generale
[Link] FCI : 127491 Tipo di gara: (XCM N) Marathon
Organizzazione: 02K3574 ALTA VALTELLINA BIKE asd PROVVISORIA
pos pett. atleta sex cat. [Link] team naz race time real time gap medi
a
50 76 VILLA MARCO M M2 6 WR COMPOSITI RACING A.S.D. ITA 04:52:13 04:51:55 00:48:24 19.10
51 120 MOROZZI NICOLA M M5 1 TUTTO BIKE TEAM KONA ITA 04:52:31 04:52:20 00:48:42 19.08
52 539 ACCORDI LUCA M ELMT 5 TEAM PASSION FAENTINA ITA 04:52:32 04:52:27 00:48:43 19.08
53 164 BORMOLINI THOMAS M ELMT 6 ALTA VALTELLINA BIKE ASD 04:52:37 04:52:19 00:48:48 19.07
54 213 MUCCI MATTEO M M3 6 TEAM COMOBIKE ASD ITA 04:53:21 04:53:05 00:49:32 19.02
55 163 SOLAVAGGIONE FABRIZIO M M2 7 VIGOR REDMOUNT - FREEDOM ITA 04:55:37 04:55:26 00:51:49 18.88
TO RIDE
56 134 BARTALUCCI FEDERICO M ELMT 7 SCOTT-PASQUINI STELLA ITA 04:56:21 04:56:09 00:52:33 18.83
AZZURRA
57 109 MANENTI ENRICO M ELMT 8 DANIELI 1914 CYCLING TEAM ITA 04:56:29 04:56:11 00:52:40 18.82
58 209 LANZI GIUSEPPE M M6 1 LISSONE MTB ASD ITA 04:56:35 04:56:19 00:52:46 18.82
59 1418 MASSARO PESCINI M M2 8 HAIBIKE LAWLEY FACTORY ITA 04:57:20 04:56:07 00:53:32 18.77
GIANLUCA TEAM
60 112 BONTEMPI ENRICO M M6 2 FTC EQUIPE A.S.D. ITA 04:57:31 04:57:19 00:53:43 18.76
61 90 MASCHERI GIUSEPPE M M1 3 TEAM SPACEBIKES ITA 04:57:31 04:57:19 00:53:43 18.76
62 123 CLAUSER ANDREA M M1 4 ASD CHERO GROUP TEAM ITA 04:57:32 04:57:13 00:53:44 18.75
SFRENATI
63 29 KRIVANEK JIRI M EL 32 ETHIC SPORT CZE 04:57:55 04:57:50 00:54:06 18.73
64 69 ZAMA LORENZO M M1 5 TEAM PASSION FAENTINA ITA 04:58:31 04:58:21 00:54:42 18.69
65 135 NEGRI ALESSANDRO M M3 7 LISSONE MTB ASD ITA 04:58:45 04:58:23 00:54:56 18.68
66 195 REDAELLI ROBERTO M M5 2 TEAM SPACEBIKES ITA 04:58:55 04:58:33 00:55:07 18.67
67 165 MARTINELLI ALAN M M1 6 ALTA VALTELLINA BIKE ASD 04:59:45 04:59:27 00:55:56 18.62
68 210 LEONI FRANCESCO M M2 9 ASD STAR BIKE ITA 05:00:32 05:00:21 00:56:44 18.57
69 50 TERENZI ANDREA M EL 33 TEAM NOB SELLE ITALIA SMR 05:01:52 05:01:43 00:58:03 18.49
70 88 ORTU FILIPPO M M3 8 A.S.D. BIKE WORLD TEAM ITA 05:01:54 05:01:35 00:58:05 18.48
71 171 UBOLDI DIMITRI M M4 3 TEAM WITTWER BIASCA SUI 05:01:54 05:01:37 00:58:06 18.48
72 137 FERRARIS ENRICO M ELMT 9 SCOTT SUMIN ITA 05:02:09 05:01:53 00:58:21 18.47
73 1F NISI MARIA CRISTINA F DE 1 BIKE INNOVATION | FOCUS | ITA 05:02:15 05:02:11 00:58:26 18.46
PISSEI
74 182 MADASCHI MARCO M M2 10 WR COMPOSITI RACING A.S.D. ITA 05:03:20 05:03:05 00:59:31 18.40
75 82 GAMBELLI MASSIMO M M4 4 TEAM CINGOLANI ITA 05:03:21 05:03:09 00:59:33 18.39
76 387 RUFFA LUCA M M4 5 MX PROJECT SUI 05:03:49 05:03:28 01:00:01 18.37
77 79 SOLAGNA MAURIZIO M M5 3 WR COMPOSITI RACING A.S.D. ITA 05:03:59 05:03:45 01:00:10 18.36
TARQUINIO
78 786 FANELLI IVAN M M2 11 TEAM FOCUS FANELLI BIKE ITA 05:04:20 05:03:24 01:00:32 18.34
79 67 FABBRI CHRISTIAN M M3 9 TEAM PASSION FAENTINA ITA 05:05:25 05:05:15 01:01:36 18.27
80 1362 BERGAMINI LUCA M ELMT 10 B'TWIN RACING TEAM ITA 05:05:26 05:04:02 01:01:37 18.27
DECATHLON ITALIA
81 149 CRAPELLA DARIO M M4 6 TEAM PAREDI ITA 05:05:36 05:05:27 01:01:48 18.26
82 158 COLLINI FRANCESCO M M1 7 G.S BULGARNO' BIKE 2008 ITA 05:05:42 05:05:23 01:01:53 18.25
ASD
83 197 BORGOGNO ANDREA M M2 12 TEAM TODESCO ITA 05:07:20 05:07:10 01:03:32 18.16
84 211 TAINI MAURIZIO M M2 13 TEAM BIKE TARTAGGIA ITA 05:07:30 05:07:10 01:03:41 18.15
85 105 CANDIDO CLAUDIO M M5 4 ASD BIKE TEAM 53.3 ITA 05:07:44 05:07:32 01:03:56 18.13
86 1190 VALLERI VALTER M M5 5 HAIBIKE LAWLEY FACTORY ITA 05:08:28 05:07:15 01:04:40 18.09
TEAM
87 427 TAMANINI LUCA M M1 8 TEAM ZANOLINI BIKE- ITA 05:08:48 05:08:37 01:04:59 18.07
WALDNER
88 207 EL GHARBI DRISS M ELMT 11 FOCUS XC ITALY TEAM ITA 05:08:51 05:08:26 01:05:02 18.07
89 388 ZIMA OTA M M1 9 KELLYS BIKE RANCH TEAM CZE 05:09:54 05:09:27 01:06:06 18.01
90 172 CHIARINI LUCA M M2 14 TEAM PASSION FAENTINA ITA 05:10:23 05:10:13 01:06:35 17.98
91 72 FAGIOLI GILBERTO M M3 10 ESSERE A.S.D. A R.L. ITA 05:10:26 05:10:15 01:06:37 17.98
92 185 LANCIONI DANIELE M M2 15 HAIBIKE LAWLEY FACTORY ITA 05:10:49 05:10:37 01:07:01 17.95
TEAM
93 563 MENGHINI ALESSANDRO M ELMT 12 SPRITZ BIKERS G.S.D. ITA 05:11:59 05:11:47 01:08:10 17.89
94 467 TIMITILLI ALESSANDRO M M3 11 A.S.D. ESTRA X-ROAD ITA 05:12:06 05:11:53 01:08:17 17.88
95 385 LUCCARDINI CLAUDIO M M5 6 MX PROJECT ITA 05:12:19 05:11:55 01:08:30 17.87
96 187 BELOTTI FABIO M M4 7 TEAM SPACEBIKES ITA 05:12:27 05:12:12 01:08:39 17.86
97 166 PASTORINO UMBERTO M M3 12 ALTA VALTELLINA BIKE ASD 05:12:31 05:12:18 01:08:43 17.86
98 381 RIGAMONTI CHRISTIAN M M4 8 G.S. ALZATE BRIANZA ITA 05:12:42 05:12:16 01:08:54 17.84
99 733 BOSSI ANGELO M M3 13 AVEZZANO CYCLING TEAM ITA 05:12:43 05:12:26 01:08:55 17.84
100 419 LALONI FABRIZIO M M1 10 U.C. PETRIGNANO A.S.D. ITA 05:13:34 05:13:26 01:09:46 17.80
101 103 MAGNANI ALBERTO M M3 14 ASD TEAM GREEN BIKE ITA 05:13:47 05:13:37 01:09:59 17.78
102 470 VESTRI RENZO M M4 9 A.S.D. MBM (MOBILITY BIKE ITA 05:14:02 05:13:59 01:10:14 17.77
MOTION)
103 200 BORGONOVO ROBERTO M M3 15 CAMA GROUP POLISPORTIVA ITA 05:14:28 05:14:11 01:10:39 17.75
104 92 RUGNA MATTEO M ELMT 13 TEAM VALTELLINA ITA 05:15:02 05:14:45 01:11:14 17.71
105 240 CAMAGGI FABRIZIO M M5 7 NOXON RACING TEAM ITA 05:15:04 05:14:34 01:11:15 17.71
106 191 NASATO STEFANO M M2 16 BIKE CLUB 2000 ITALIANJET ITA 05:15:30 05:15:10 01:11:42 17.69
Servizio a cura di OTC SRL 29/07/2017 18:40 sigle giudici
[Link] - Classifiche e risultati su ENDU - [Link] Pagina 2 di 22
Classifica generale
[Link] FCI : 127491 Tipo di gara: (XCM N) Marathon
Organizzazione: 02K3574 ALTA VALTELLINA BIKE asd PROVVISORIA
pos pett. atleta sex cat. [Link] team naz race time real time gap medi
a
107 1554 CORUZZI ANDREA M M2 17 SHOW AIR TEAM ASD ITA 05:16:33 05:15:51 01:12:44 17.63
108 2F FUMAGALLI MARA F DE 2 POLIMEDICAL-FRM ITA 05:16:42 05:16:37 01:12:54 17.62
109 119 MESSANO DANIELE M M4 10 TUTTO BIKE TEAM KONA ITA 05:17:00 05:16:49 01:13:11 17.60
110 146 CHIEREGATO ANDREA M M3 16 VITTORIA-LEPONTIA RACING ITA 05:17:36 05:17:17 01:13:48 17.57
TEAM
111 639 DICATALDO CHRISTIAN M M1 11 A.S.D. LARIS BIKE ITA 05:17:46 05:17:14 01:13:58 17.56
112 97 CIAPPONI ANGELO M M5 8 DAMIANI XBIKE TEAM ITA 05:17:50 05:17:34 01:14:01 17.56
113 124 ANTONIOLI MAURO M M5 9 CICOBIKES- DSB- ITA 05:18:22 05:18:08 01:14:33 17.53
NONSOLOFANGO
114 129 FRANZINI MARTINO M M2 18 A.S.D. GROSIO CICLISMO ITA 05:18:36 05:18:25 01:14:48 17.51
115 356 MAZZA MATTEO M ELMT 14 TEAM PAREDI ITA 05:18:46 05:18:18 01:14:57 17.51
116 170 PATRIAN MASSIMILIANO M M4 11 RUN AND BIKE / A-TEAM ITA 05:18:46 05:18:26 01:14:58 17.51
117 37 LOUAGIE LORENZO M EL 34 KZLWC HEYLEN BEL 05:18:57 05:18:49 01:15:09 17.50
118 1078 CURTI LUCIANO M M4 12 TEAM PAREDI ITA 05:19:30 05:18:52 01:15:42 17.47
119 71 PIAGNERELLI MATTEO M M2 19 TEAM CINGOLANI ITA 05:20:39 05:20:24 01:16:51 17.40
120 1443 KINZEL ANDR M M2 20 RSC AUTO BROSCH Kempten GER 05:20:40 05:19:34 01:16:51 17.40
121 630 BIZZARRI STEFANO M ELMT 15 TEAM CINGOLANI ITA 05:20:47 05:20:17 01:16:58 17.40
122 118 GUGLIELMI MATTEO M M4 13 TEAM BIKE [Link] ITA 05:21:06 05:20:55 01:17:18 17.38
123 301 PRINCIPI FRANCESCO M M2 21 ARES BIKE TEAM ASD ITA 05:21:27 05:20:59 01:17:38 17.36
124 586 OSS AGOSTINO M M7+ 1 GSA PENNE SPRINT ITA 05:21:37 05:21:31 01:17:49 17.35
125 89 VALENTINI ANDREA M M2 22 ASD SPRINT BIKE LUMEZZANE ITA 05:21:39 05:21:22 01:17:50 17.35
126 131 BONGIOVANNI LORENZO M M3 17 MASTER TEAM A.S.D. ITA 05:21:39 05:21:24 01:17:51 17.35
127 192 BERLUSCONI MASSIMO M M6 3 TEAM SPACEBIKES ITA 05:21:42 05:21:29 01:17:54 17.35
128 303 SALA DINO M M5 10 A.S.D. GROSIO CICLISMO ITA 05:22:19 05:21:50 01:18:31 17.31
129 1052 CURNIS CARLO M ELMT 16 FREE BIKE NEMBRO ITA 05:22:46 05:21:38 01:18:57 17.29
130 867 CACCHIANI RICHARD M M3 18 GS POPPI ASD ITA 05:22:58 05:22:50 01:19:09 17.28
131 100 FABBRI ALBERTO M M3 19 ASD BIKELAND TEAM BIKE ITA 05:23:22 05:23:12 01:19:33 17.26
2003
132 157 MAZZONI MARCO M M4 14 VITAM-IN CYCLING TEAM ASD ITA 05:23:29 05:23:06 01:19:40 17.25
133 156 FRANZI MICHELE M M3 20 DAMIANI XBIKE TEAM ITA 05:23:49 05:23:34 01:20:01 17.23
134 289 TABONI MIRCO M M2 23 A.S.D. G.S. MONDOBICI ITA 05:23:57 05:23:29 01:20:09 17.22
135 77 CORNAGO SERGIO M M5 11 CAMA GROUP POLISPORTIVA ITA 05:24:09 05:23:52 01:20:20 17.22
136 591 BIGNOTTI MATTEO M ELMT 17 ALTA VALTELLINA BIKE ASD ITA 05:24:58 05:24:45 01:21:09 17.17
137 198 ORIO ROBERTO M M2 24 TEAM TODESCO ITA 05:25:19 05:24:59 01:21:30 17.15
138 57 BARTUNEK MAREK M EL 35 ETHIC SPORT CZE 05:25:23 05:25:17 01:21:35 17.15
139 664 ALLEVA GIUSEPPE M M3 21 D'ASCENZO BIKE ITA 05:25:43 05:24:43 01:21:55 17.13
140 1255 SALIMBENI LUIGI M M2 25 CICLO TEAM [Link] ITA 05:25:45 05:24:35 01:21:56 17.13
141 151 PIETROBON FABIO M M3 22 BIKE CLUB 2000 ITALIANJET ITA 05:25:56 05:25:34 01:22:08 17.12
142 1562 PRETINI DANIELE M M2 26 CICLO TEAM [Link] ITA 05:26:42 05:25:32 01:22:54 17.08
143 231 FUCCELLI NICO M M3 23 DONKEY BIKE CLUB A.S.D. ITA 05:26:52 05:26:43 01:23:04 17.07
144 3F SOSNA KATAZINA F DE 3 TORPADO-SDTIROL MTB PRO LTU 05:27:15 05:27:11 01:23:27 17.05
TEAM
145 226 LO RUSSO MARCO M M2 27 TEAM SPACCO A.S.D. ITA 05:27:17 05:26:51 01:23:29 17.05
146 227 RUFFILLI PAOLO M M2 28 TEAM SPACCO A.S.D. ITA 05:27:17 05:26:51 01:23:29 17.05
147 1281 TOMASONI SAMUELE M M2 29 MTB FRANCIACORTA ITA 05:28:55 05:28:10 01:25:07 16.97
CAPRIOLO
148 1530 TERRANOVA FRANCESCO M ELMT 18 ASD BAARIA ITA 05:29:24 05:28:51 01:25:35 16.94
149 256 PIANTONI MAURIZIO M M3 24 A.S.D. TEAM MOROTTI ITA 05:30:10 05:29:33 01:26:22 16.90
150 93 ZANNI PAOLO M M2 30 FREE BIKE NEMBRO ITA 05:30:21 05:29:59 01:26:32 16.89
151 155 AGOSTINELLI LUCA M M4 15 U.C. PETRIGNANO A.S.D. ITA 05:30:38 05:30:26 01:26:50 16.88
152 81 COSTANTINI FABRIZIO M M5 12 TEAM CINGOLANI ITA 05:31:12 05:30:59 01:27:24 16.85
153 373 PARPINEL ADAMASTOR M M3 25 BILLY TEAM A.S.D. ITA 05:31:23 05:30:52 01:27:35 16.84
154 145 CORINALDESI SIMONE M M3 26 TEAM CINGOLANI ITA 05:31:47 05:31:32 01:27:58 16.82
155 315 CUCCURULLO VINCENZO M M6 4 S.C. TRIANGOLO LARIANO ITA 05:31:54 05:31:27 01:28:06 16.81
A.S.D.
156 242 TAM STEFANO M ELMT 19 NIARDO FOR BIKE A.S.D. ITA 05:32:27 05:31:53 01:28:39 16.78
157 125 ZAGNI PIETRO M M1 12 ASD SPRINT BIKE LUMEZZANE ITA 05:32:52 05:32:38 01:29:04 16.76
158 75 BARBIERI MATTEO M M3 27 LA BOTTEGA CASINALBO ITA 05:32:54 05:32:37 01:29:06 16.76
159 342 MARIOTTI FRANCESCO M M4 16 TEAM CINGOLANI ITA 05:32:59 05:32:36 01:29:11 16.76
MARIO
160 497 BARTOLUCCI ALESSANDRO M M2 31 G.S. CICLO CLUB CALCINELLI ITA 05:33:02 05:33:02 01:29:14 16.76
161 304 FRANCESCHINA MIRKO M M4 17 US BORMIESE ITA 05:33:04 05:32:22 01:29:15 16.75
162 70 PIANELLI EMANUELE M M3 28 TEAM CINGOLANI ITA 05:33:15 05:33:01 01:29:27 16.74
163 316 CANALI GIUSEPPE M M6 5 S.C. TRIANGOLO LARIANO ITA 05:34:10 05:33:43 01:30:22 16.70
A.S.D.
164 141 NAZIONALE SIMONE M M1 13 TEAM CENTOXCENTOBICI ITA 05:34:13 05:33:54 01:30:25 16.70
165 277 LIETTI ALESSANDRO M M4 18 TEAM MTB BEE AND BIKE- ITA 05:34:15 05:33:45 01:30:27 16.69
Servizio a cura di OTC SRL 29/07/2017 18:40 sigle giudici
[Link] - Classifiche e risultati su ENDU - [Link] Pagina 3 di 22
Classifica generale
[Link] FCI : 127491 Tipo di gara: (XCM N) Marathon
Organizzazione: 02K3574 ALTA VALTELLINA BIKE asd PROVVISORIA
pos pett. atleta sex cat. [Link] team naz race time real time gap medi
a
BREGNANO
166 353 BRUSTIA DANIELE M ELMT 20 DARRA RACING TEAM ASD ITA 05:34:57 05:34:33 01:31:09 16.66
167 280 MASSARUCCI ERNELIO M M5 13 TRIONO RACING MEDICAL ITA 05:35:13 05:34:45 01:31:25 16.65
FREM
168 246 MAMBELLI MARINO M M7+ 2 TEAM COMACO ASD ITA 05:35:59 05:35:32 01:32:11 16.61
169 174 LEOTTA SEBASTIANO M M3 29 SPECIAL BIKERS TEAM ITA 05:35:59 05:35:41 01:32:11 16.61
170 638 PERAIO MARCO M M5 14 A.S.D. LARIS BIKE ITA 05:36:08 05:35:35 01:32:19 16.60
171 264 BELARDINELLI RODOLFO M M5 15 MONDOBICI ITA 05:36:08 05:35:44 01:32:20 16.60
172 1434 DA RIOS ALBERTO M M5 16 ITA 05:36:15 05:34:28 01:32:26 16.60
173 68 VENINI ANDREA M M2 32 BICI CLUB 2000 ITA 05:36:17 05:36:00 01:32:28 16.59
174 974 RINALDI ANDREA M ELMT 21 GRUPPO T.N.T. A.S.D. ITA 05:36:40 05:36:37 01:32:52 16.57
175 1224 CEROFOLINI FABIO M M2 33 GS POPPI ASD ITA 05:37:02 05:36:35 01:33:13 16.56
176 147 GILARDI FABIO M M4 19 S.C. TRIANGOLO LARIANO ITA 05:37:02 05:36:42 01:33:14 16.56
A.S.D.
177 122 TAVONATTI DIEGO M M2 34 PREDAIA BIKE TEAM A.S.D. ITA 05:37:19 05:36:59 01:33:31 16.54
178 159 CODONI LUCA M ELMT 22 ROYAL BIKE ITA 05:37:51 05:37:32 01:34:02 16.52
179 290 DEL PERO DIEGO M M4 20 NIARDO FOR BIKE A.S.D. ITA 05:37:52 05:37:16 01:34:03 16.52
180 971 CHIARA SIMONE M M2 35 ASD PEDALE LEYNICESE ITA 05:37:57 05:37:24 01:34:08 16.51
181 296 PETRUCCIOLI ARNALDO M M6 6 GS POPPI ASD ITA 05:38:10 05:37:30 01:34:21 16.50
182 133 CASSINA FILIPPO M M2 36 TEAM MTB LOMAZZO ITA 05:38:45 05:38:25 01:34:57 16.47
183 273 BRUNETTI GIOVANNI M M5 17 BARACCA LUGO MTB ITA 05:39:02 05:38:28 01:35:14 16.46
184 734 FORTUNATO MARCO M M6 7 TEAM CICLI BURRACCHIO ITA 05:39:23 05:39:00 01:35:34 16.44
185 975 FRESCHI ALESSANDRO M ELMT 23 GRUPPO T.N.T. A.S.D. ITA 05:39:23 05:39:19 01:35:35 16.44
186 300 CIARROCCHI DAVID M M2 37 ARES BIKE TEAM ASD ITA 05:39:33 05:39:07 01:35:44 16.43
187 1547 TORNESE GIUSEPPE M M1 14 TEAM ISOLMANT ITA 05:39:41 05:38:31 01:35:53 16.43
188 990 FRANZI MICHELE M M3 30 ASD GIO' N'DENT ITA 05:39:42 05:38:30 01:35:53 16.43
189 65 MANDELLI CHIARA F W2 1 TEAM SPACEBIKES ITA 05:40:24 05:40:03 01:36:35 16.39
190 1561 BRZOZKA JACEK M M6 8 GIORNALIERO POL 05:40:29 05:39:48 01:36:40 16.39
191 245 NOLDIN MARTINO M M3 31 TEAM TODESCO ITA 05:40:35 05:39:56 01:36:46 16.38
192 528 ZACCARELLI GIUSEPPE M M4 21 TEAM PASSION FAENTINA ITA 05:40:38 05:40:28 01:36:49 16.38
193 985 ANGIOLI ELVIS M M1 15 IMOLA BIKE ITA 05:40:40 05:40:30 01:36:52 16.38
194 1382 PEPE' SALVATORE M M2 38 GEFO ITA 05:40:41 05:39:24 01:36:53 16.38
195 1310 DENNUNZIO ANDREA M M1 16 PALMER CYCLING TEAM A.S.D. ITA 05:41:01 05:40:20 01:37:12 16.36
196 386 ANGARONI PAOLO M M6 9 MX PROJECT ITA 05:41:28 05:41:03 01:37:40 16.34
197 1555 GRANDE PIETRO M ELMT 24 ASD ULTIMO KM ITA 05:41:42 05:40:17 01:37:54 16.33
198 215 FAGIOLI UGO M M1 17 TREVI GROUP ( SOIL. - MEC) ITA 05:41:43 05:41:33 01:37:55 16.33
199 102 ZALLINGER MARKUS M M3 32 TSV Sparkasse Frankenmarkt AUT 05:41:49 05:41:29 01:38:01 16.32
200 1140 LOCATELLI STEFANO M ELMT 25 TEAM COLPACK ITA 05:42:07 05:41:08 01:38:19 16.31
201 1423 GILARDI ALDO M M4 22 GEFO ITA 05:42:15 05:40:58 01:38:27 16.30
202 335 MERLARI SERGIO M M6 10 TEAM PASSION FAENTINA ITA 05:42:16 05:41:45 01:38:27 16.30
203 488 IACOVACCI MAURIZIO M ELMT 26 ITA 05:42:25 05:42:21 01:38:36 16.30
204 291 CRISTINELLI ROBERTO M M4 23 GRUPPO NULLI ISEO MTB ITA 05:42:35 05:42:03 01:38:47 16.29
A.S.D
205 540 VALLONE BERNARDO M M5 18 MAGICUNEO ITA 05:42:43 05:42:12 01:38:54 16.28
206 1437 PAGANONI DIMITRI M ELMT 27 DAMIANI XBIKE TEAM ITA 05:42:48 05:42:16 01:38:59 16.28
207 916 FINAZZI FABIO M M3 33 GS POLISPORTIVA ADRENSE ITA 05:43:05 05:43:00 01:39:16 16.26
208 345 BASILI LUCA M M1 18 BELTRAMI TSA GRAVITY ITA 05:43:10 05:42:39 01:39:22 16.26
GAMES
209 501 OLIVIERI ANDREA M M1 19 S.C. VILLAFRANCA ITA 05:43:25 05:43:07 01:39:36 16.25
210 641 POGGIOLI GIANLUCA M M1 20 ASD VIGO BIKE ITA 05:43:32 05:42:42 01:39:43 16.24
211 126 FIORELLI ANGELO M M6 11 ASD A.S.C. CICLI CLEMENTI ITA 05:43:39 05:43:30 01:39:50 16.24
212 257 ACCORSI ANDREA M M2 39 ASD BICICULT ITA 05:43:43 05:43:07 01:39:55 16.23
213 382 MANENTI GIACOMO M ELMT 28 ADAMELLO FREE BIKE A.S.D. ITA 05:43:59 05:43:19 01:40:11 16.22
214 384 SIVERO LUCA M M5 19 FOCUS XC ITALY TEAM ITA 05:44:00 05:43:36 01:40:12 16.22
215 1098 LANFRANCHI EDOARDO M M2 40 A.S.D. GROSIO CICLISMO ITA 05:44:17 05:43:12 01:40:29 16.21
216 785 GARZETTI MARCO M ELMT 29 ALTA VALTELLINA BIKE ASD ITA 05:44:46 05:43:47 01:40:58 16.19
217 527 MAZZOLENI ENZO M M3 34 PONTIDA MTB TEAM ITA 05:45:01 05:44:55 01:41:12 16.17
218 1422 RUGGERO FRANCO M M5 20 ASD 2 X 2 TEAM BRENNA ITA 05:45:04 05:43:55 01:41:16 16.17
219 259 BISARELLO FABIO M M3 35 BIKE&CO ASD ITA 05:45:05 05:44:32 01:41:16 16.17
220 530 NAY LUCA M M2 41 SUI 05:45:21 05:45:02 01:41:32 16.16
221 701 CANAPE DANIELE M M3 36 BICI CLUB 2000 ITA 05:45:21 05:44:26 01:41:32 16.16
222 775 SAVIGNANO VANNI M M2 42 SESSANTALLORA ITA 05:45:29 05:44:33 01:41:41 16.15
223 1032 FERRARI MANUEL M M2 43 DNA BIKE TEAM A.S.D. ITA 05:45:44 05:45:04 01:41:56 16.14
224 225 LONGA FABIO M M4 24 SPORTING CLUB LIVIGNO ITA 05:45:51 05:45:12 01:42:03 16.13
225 1222 MATINI MARCO M M1 21 GS POPPI ASD ITA 05:45:57 05:45:16 01:42:08 16.13
Servizio a cura di OTC SRL 29/07/2017 18:40 sigle giudici
[Link] - Classifiche e risultati su ENDU - [Link] Pagina 4 di 22
Classifica generale
[Link] FCI : 127491 Tipo di gara: (XCM N) Marathon
Organizzazione: 02K3574 ALTA VALTELLINA BIKE asd PROVVISORIA
pos pett. atleta sex cat. [Link] team naz race time real time gap medi
a
226 1156 FILOMENA MARTINO M ELMT 30 CHIALA' CYCLING TEAM ITA 05:46:09 05:44:57 01:42:20 16.12
LOCOROTONDO
227 340 MENGHINI GIAMPIERO M M4 25 TEAM CINGOLANI ITA 05:46:30 05:46:07 01:42:41 16.10
228 911 MORDINI MARCO M M1 22 ASD BICICULT ITA 05:46:40 05:46:30 01:42:52 16.10
229 244 ORAZI ANDREA M M6 12 TEAM CINGOLANI ITA 05:46:53 05:46:28 01:43:05 16.09
230 875 MARTINI GIANFRANCO M M3 37 CHIALA' CYCLING TEAM ITA 05:47:03 05:46:48 01:43:14 16.08
LOCOROTONDO
231 186 BORMOLINI ALFREDO M M5 21 SPORTING CLUB LIVIGNO ITA 05:47:23 05:47:02 01:43:35 16.06
MASSIMO
232 849 SITTONI DIEGO M M3 38 GSA PENNE SPRINT ITA 05:47:29 05:47:18 01:43:40 16.06
233 168 BELOTTI GIUSEPPE M M4 26 TEAM ZETA ITA 05:48:09 05:47:48 01:44:20 16.03
234 407 BERTANI MATTEO M M3 39 TEAM DE ROSA SANTINI ITA 05:48:12 05:48:01 01:44:23 16.03
235 73 DAL PRATO MIRKO M M1 23 TEAM PASSION FAENTINA ITA 05:48:16 05:48:06 01:44:28 16.02
236 1392 ANGIOLINI ALBERTO M M2 44 BICI CLUB FONTANELLATO ITA 05:48:23 05:47:41 01:44:35 16.02
ASD
237 1265 BRACCIA FRANCESCO M M2 45 MAJELLA BIKE BROTHERS ITA 05:48:25 05:48:00 01:44:37 16.02
238 581 DONATI DIEGO M M2 46 ASD VELO CLUB LUNIGIANA ITA 05:48:30 05:48:13 01:44:42 16.01
239 437 TIGLI LUCA M M2 47 DONKEY BIKE CLUB A.S.D. ITA 05:48:33 05:48:25 01:44:45 16.01
240 1462 DUCA FABRIZIO M M2 48 ASD GRUPPO AMATORI CICLI ITA 05:49:11 05:48:39 01:45:23 15.98
BOGLIA
241 1541 ZAFFERANI MICHELE M M2 49 SAN MARINO MTB TEAM SMR 05:49:19 05:48:34 01:45:30 15.97
242 1151 DAL LAGO MARCO OLIVO M M3 40 CAMA GROUP POLISPORTIVA ITA 05:49:23 05:48:32 01:45:34 15.97
243 1248 HARTMANN RAINER M M5 22 SUI 05:49:46 05:48:49 01:45:57 15.95
244 1505 FALCONI ENRICO M M5 23 FREE BIKE NEMBRO ITA 05:49:58 05:48:50 01:46:10 15.94
245 310 LANCIA LEONARDO M M6 13 MTB CLUB SPOLETO ITA 05:50:02 05:49:26 01:46:14 15.94
246 260 SALSI STEFANO M M5 24 A.S.D. COOPERATORI ITA 05:50:04 05:49:42 01:46:15 15.94
247 1538 MAGRO MATTIA M M1 24 US BORMIESE ITA 05:50:07 05:48:35 01:46:19 15.94
248 40 FUCCI MATTEO M EL 36 ACIDO LATTICO TEAM ITA 05:50:08 05:50:01 01:46:19 15.94
249 361 COZZOLI MASSIMO M M6 14 FTC EQUIPE A.S.D. ITA 05:50:39 05:49:58 01:46:50 15.91
250 1491 MONTEMURRO GIOVANNI M M1 25 TEAM 99 MILANO [Link] ITA 05:51:22 05:50:12 01:47:34 15.88
ALESSIO
251 1127 MAURO EMANUELE M ELMT 31 TEAM PASSION FAENTINA ITA 05:51:27 05:51:01 01:47:38 15.88
252 234 VOKOUN JAN M M3 41 KL SPORT MOST CZE 05:51:31 05:51:03 01:47:42 15.87
253 376 TRISOTTO IVANO M M4 27 U.S. CHIAVENNESE ITA 05:51:51 05:51:14 01:48:03 15.86
254 1150 RIVELLINI FABIANO M M5 25 TROPICAL BIKE BOLGARE ITA 05:52:18 05:51:18 01:48:29 15.84
255 1364 PASCARELLA ROBERTO M ELMT 32 B'TWIN RACING TEAM ITA 05:52:24 05:51:12 01:48:36 15.83
DECATHLON ITALIA
256 369 TRABATTONI MAURO M M4 28 FORMAGGILANDIA2 ITA 05:52:38 05:51:47 01:48:50 15.82
FERDINANDO MALGRATE ASD
257 312 PLENZICH REMILIANO M M3 42 MONDOBICI ITA 05:53:01 05:52:31 01:49:12 15.81
258 619 BALDUCCI FABIO M M3 43 SAN MARINO MTB TEAM SMR 05:53:15 05:52:19 01:49:26 15.80
259 1500 CUTELLO MARIO M M2 50 A.S.D. CICLOAMATORI GULFI ITA 05:53:19 05:52:22 01:49:31 15.79
260 1215 ZANI DANIELE M ELMT 33 U.S. CHIAVENNESE ITA 05:53:51 05:53:13 01:50:03 15.77
261 735 LEONI DANIELE M M5 26 OSTERIA BIKE A.S.D ITA 05:54:03 05:53:39 01:50:14 15.76
262 383 RAINOLTER MARCO M M4 29 US BORMIESE ITA 05:54:09 05:53:27 01:50:21 15.76
263 669 GASPERONI STEFANO M M4 30 TEAM BLACK ROAD ASD ITA 05:54:14 05:53:43 01:50:26 15.75
264 311 MARCHIONI MAURO M ELMT 34 TEAM MEDIA BIKE ITA 05:54:16 05:53:35 01:50:27 15.75
265 1264 PANACCIO LORENZO M M2 51 MAJELLA BIKE BROTHERS ITA 05:54:20 05:53:55 01:50:31 15.75
266 485 GUGLIELMI THOMAS M M2 52 TEAM SPACCO A.S.D. ITA 05:54:29 05:54:21 01:50:41 15.74
267 425 BOSCAINI CRISTIANO M M2 53 ASD BIKE AND FUN TEAM ITA 05:54:42 05:54:27 01:50:53 15.73
268 270 GERGATI STEFANO M M1 26 ASD TEAM ALL4 CYCLING - ITA 05:54:52 05:54:18 01:51:04 15.72
BDC
269 285 PEDRINI FEDERICO M M2 54 US BORMIESE ITA 05:55:16 05:54:35 01:51:27 15.71
270 1419 VANNI ANDREA M M3 44 HAIBIKE LAWLEY FACTORY ITA 05:55:22 05:54:12 01:51:34 15.70
TEAM
271 703 FERRIOLO FEDERICO M ELMT 35 CAMA GROUP POLISPORTIVA ITA 05:55:22 05:54:44 01:51:34 15.70
272 349 BERBENNI SILVANO M M5 27 ALTA VALTELLINA BIKE ASD 05:55:24 05:54:50 01:51:36 15.70
273 329 VIGANO' CLAUDIO M M3 45 SIRONE BIKE ASD ITA 05:55:29 05:54:56 01:51:41 15.70
274 377 VITALE ALESSANDRO M M4 31 A.S.D. BREMBER VALLEY ITA 05:55:40 05:55:04 01:51:51 15.69
275 441 BRUSCIOTTI MARCO M M5 28 A.S.D. VILLA ROSA BIKE ITA 05:55:42 05:55:29 01:51:54 15.69
276 161 SCHILLACI MARIO M M4 32 ASD G. S. PREALPINO ITA 05:55:46 05:55:27 01:51:57 15.69
277 1356 ALLODI PAOLO M M4 33 TEAM DUEMME CORSE ASD ITA 05:56:04 05:54:58 01:52:16 15.67
278 428 FANTINI MASSIMILIANO M M4 34 A.S.D. TEAM K-ONE ITA 05:56:13 05:55:59 01:52:25 15.66
279 1377 RICCI MACCARINI ANDREA M M1 27 BARACCA LUGO MTB ITA 05:56:18 05:55:13 01:52:30 15.66
280 560 VENTRICE PASQUALE M M2 55 ASD PIANOPOLI BIKE TEAM ITA 05:56:32 05:56:13 01:52:44 15.65
281 364 PIATESI STEFANO M M5 29 BD FAST ITA 05:57:06 05:56:32 01:53:18 15.63
282 199 PEDROTTI THOMAS M ELMT 36 TEAM TODESCO ITA 05:57:09 05:56:50 01:53:21 15.62
Servizio a cura di OTC SRL 29/07/2017 18:40 sigle giudici
[Link] - Classifiche e risultati su ENDU - [Link] Pagina 5 di 22
Classifica generale
[Link] FCI : 127491 Tipo di gara: (XCM N) Marathon
Organizzazione: 02K3574 ALTA VALTELLINA BIKE asd PROVVISORIA
pos pett. atleta sex cat. [Link] team naz race time real time gap medi
a
283 1508 TONOLINI DANIEL M M1 28 MTB PARRE ITA 05:57:30 05:55:47 01:53:42 15.61
284 1008 BIANCONI FRANCESCA F EWS-W1 1 A.S.D. BIKER IN LIBERTA' ITA 05:57:46 05:57:02 01:53:57 15.60
285 858 CATTANEO ANDREA M M2 56 A.S.D. TEAM EMMEBIKE ITA 05:57:46 05:57:41 01:53:57 15.60
286 1469 TIENGO ALESSANDRO M M3 46 A.S.D. G.S. PORTO VIRO ITA 05:57:55 05:56:32 01:54:06 15.59
287 317 FRACASSI ALESSANDRO M ELMT 37 MTB ITALIA-HOT ROCK ITA 05:58:02 05:58:02 01:54:14 15.59
SCHOOL
288 354 ROTA STEFANO M M4 35 DARRA RACING TEAM ASD ITA 05:58:30 05:57:59 01:54:42 15.56
289 343 SILVERI LUCA M M3 47 GC CANINO ITA 05:58:53 05:58:08 01:55:04 15.55
290 1053 AMICI GUIDO M M2 57 ASD SPRINT BIKE LUMEZZANE ITA 05:59:16 05:58:30 01:55:28 15.53
291 222 PETRUCCIOLI MONICA F EWS-W1 2 GS POPPI ASD ITA 05:59:23 05:58:42 01:55:35 15.53
292 750 PIANTINI ANGIOLINO M M6 15 MTB CASENTINO ITA 06:00:40 06:00:09 01:56:52 15.47
293 293 MOTTA CLAUDIO M M3 48 EASY RIDE ITA 06:00:53 06:00:23 01:57:05 15.46
294 324 PONTI GABRIELE M M2 58 ASD TEAM ALTA BRIANZA ITA 06:00:56 06:00:56 01:57:08 15.46
295 1521 RIBETTO DIEGO M M3 49 ALPINA-BIKECAFE ITA 06:00:58 05:59:04 01:57:10 15.46
296 306 TONIUTTI RUGGERO M M6 16 CICLISSIMO BIKE TEAM ITA 06:01:08 06:00:27 01:57:20 15.45
297 325 TASSI LUCA M M4 36 A.S.D. WAYPOINT MTB ITA 06:01:23 06:00:41 01:57:34 15.44
FILOTTRANO
298 988 BAZZI LUCA M M1 29 TEAM VALTELLINA ITA 06:01:38 06:01:22 01:57:50 15.43
299 224 BONETTI GIANCARLO M M2 59 FTC EQUIPE A.S.D. ITA 06:01:45 06:01:05 01:57:57 15.43
300 466 MASTACCHI ANDREA M M5 30 A.S.D. MBM (MOBILITY BIKE ITA 06:02:20 06:02:07 01:58:31 15.40
MOTION)
301 463 CASELLI MICHELE M M3 50 A.S.D. MBM (MOBILITY BIKE ITA 06:02:20 06:02:08 01:58:31 15.40
MOTION)
302 1077 BERTONI ANDREA M ELMT 38 A.S.D. GOODBIKE ITA 06:02:32 06:01:00 01:58:43 15.39
PONTREMOLI VALLI DI ZERI
303 904 BALDINI GIANLUCA M M4 37 TEAM CINGOLANI ITA 06:02:36 06:02:24 01:58:48 15.39
304 375 MAVER GIORGIO M M6 17 MTB PARRE ITA 06:02:44 06:02:10 01:58:56 15.38
305 1432 SERAFINI STEFANO M M3 51 A.S.D. MISTERBICI FABRIANO ITA 06:02:45 06:00:46 01:58:57 15.38
306 279 CASCIANELLI MAURO M M2 60 TRIONO RACING MEDICAL ITA 06:02:59 06:02:30 01:59:10 15.37
FREM
307 110 VALENTE MIRKO M M3 52 TRIONO RACING MEDICAL ITA 06:02:59 06:02:39 01:59:10 15.37
FREM
308 846 MOSER STEFANO M M1 30 GSA PENNE SPRINT ITA 06:03:09 06:02:59 01:59:20 15.37
309 844 GALEANO PAOLO M M2 61 UC PREGANZIOL ITA 06:03:27 06:02:33 01:59:38 15.35
COSTRUZIONI SCILLA
310 940 LONGHITANO DAVIDE M M2 62 [Link] U.S.C. ITA 06:03:27 06:03:08 01:59:39 15.35
CALCROCI
311 1041 DI MAURO ANTONIO M M1 31 VULCAN RIDERS TEAM ITA 06:03:27 06:02:36 01:59:39 15.35
312 1485 ARN ANDREA M ELMT 39 A.S.D. PRENESTE BIKE ITA 06:03:36 06:03:09 01:59:47 15.35
313 272 NIDESTI CRISTIAN M M3 53 ASD G.S. SAN MARTINO D. ITA 06:03:56 06:03:26 02:00:07 15.33
BATTAGLIA
314 319 LONATI DAVIDE M M5 31 MDL RACING CREW A.S.D. ITA 06:04:12 06:03:46 02:00:23 15.32
315 1447 MARTINELLI MAURO M M4 38 ASD TEAM INVERCOLOR ITA 06:04:14 06:02:48 02:00:25 15.32
316 265 BALBONI ANDREA M M3 54 VIVO ASSOCIAZIONE ITA 06:04:15 06:03:44 02:00:26 15.32
SPORTIVA DILETTANTISTA
317 1315 TRIACCA PAOLO M M4 39 TEAM BIKE CENTER ITA 06:04:20 06:03:36 02:00:32 15.32
318 707 GALATOLO MARCO M M4 40 MT BIKE ARGENTARIO ITA 06:04:26 06:04:02 02:00:38 15.31
319 706 PENNONE STEFANO M M4 41 MT BIKE ARGENTARIO ITA 06:04:26 06:04:03 02:00:38 15.31
320 1506 CAPITANI FILIPPO M M1 32 LA BOTTEGA CASINALBO ITA 06:04:27 06:03:39 02:00:39 15.31
321 339 BERARDI GIORGIO M M3 55 TEAM CINGOLANI ITA 06:04:29 06:04:05 02:00:41 15.31
322 142 TAGLIAFERRI FULVIO M M2 63 TEAM 2ACERI A. S. ITA 06:04:33 06:04:12 02:00:44 15.31
DILETTANTISTICA
323 629 CIOTTI GIUSEPPE M M5 32 NEW ASD MARIO PUPILLI ITA 06:04:50 06:04:03 02:01:02 15.29
324 262 PANZIERA GIORGIO M M5 33 TEAM CICLOPE MTB ITA 06:04:59 06:04:23 02:01:10 15.29
325 1474 BONESSA FEDERICO M ELMT 40 A.S. DILETTANTISTICA PEDALE ITA 06:05:11 06:03:38 02:01:23 15.28
LEYNICE
326 912 BIANCHETTI PAOLO M M4 42 TEAM BUSSOLA VERONA ASD ITA 06:05:11 06:05:00 02:01:23 15.28
327 314 CHIARAVALLOTI GIOVANNI M M6 18 TEAM WITTWER BIASCA SUI 06:05:14 06:04:37 02:01:25 15.28
328 1187 DEL CURTO ROBERTO M M4 43 U.S. CHIAVENNESE ITA 06:05:26 06:04:48 02:01:38 15.27
329 5F PICCA VALENTINA F DE 4 SC MICHELA FANINI ITA 06:05:36 06:05:30 02:01:48 15.26
330 230 CANDI DAVIDE M M3 56 A.S.D. TEAM K-ONE ITA 06:05:40 06:05:12 02:01:51 15.26
331 848 BAMPI MARCO M M3 57 GSA PENNE SPRINT ITA 06:05:42 06:05:31 02:01:54 15.26
332 411 ZANCHI ENRICO M ELMT 41 TEAM ISOLMANT ITA 06:05:45 06:05:29 02:01:57 15.26
333 330 GIANOLA MARIO M M5 34 A.S. PREMANA ITA 06:06:24 06:05:41 02:02:35 15.23
334 1430 CAPRARI MATTEO M M2 64 TEAM ISOLMANT ITA 06:06:31 06:04:54 02:02:42 15.22
335 447 GRELLA SAMUELE M ELMT 42 TUTTO BIKE TEAM KONA ITA 06:06:48 06:06:36 02:03:00 15.21
336 1200 MACCABEI ANDREA M M4 44 CRAL AMMINISTRAZIONE ITA 06:07:10 06:06:06 02:03:21 15.20
TERNI
337 569 MURRALI GIANSALVATORE M M3 58 FREE BIKE NEMBRO ITA 06:07:24 06:07:12 02:03:36 15.19
338 1046 CHIAVELLI GUIDO M M3 59 SANT'ANNA TEAM ITA 06:07:28 06:06:27 02:03:39 15.19
Servizio a cura di OTC SRL 29/07/2017 18:40 sigle giudici
[Link] - Classifiche e risultati su ENDU - [Link] Pagina 6 di 22
Classifica generale
[Link] FCI : 127491 Tipo di gara: (XCM N) Marathon
Organizzazione: 02K3574 ALTA VALTELLINA BIKE asd PROVVISORIA
pos pett. atleta sex cat. [Link] team naz race time real time gap medi
a
339 571 ACERBIS LUCIANO M M5 35 FREE BIKE NEMBRO ITA 06:08:08 06:07:54 02:04:19 15.16
340 743 CARRIERO IVAN M M1 33 A.S.D. NUOVA ATHENA CLUB ITA 06:08:12 06:07:24 02:04:24 15.15
2002
341 1390 COPERCINI ALESSIO M M2 65 SHOW AIR TEAM ASD ITA 06:08:20 06:07:38 02:04:32 15.15
342 275 VENTURI OTELLO M M5 36 MONDOBICI ITA 06:08:31 06:08:01 02:04:42 15.14
343 322 DELL'ORO RENATO M M3 60 CAMA GROUP POLISPORTIVA ITA 06:08:40 06:07:58 02:04:52 15.14
344 660 CIAMPICA GABRIELE M ELMT 43 A.S.D. MTB CASTIGLIONE DEL ITA 06:08:42 06:08:13 02:04:53 15.13
LAGO
345 667 MOLINARI STEFANO M M4 45 ASD POLISPORTIVA BIKEFAN SMR 06:08:42 06:08:08 02:04:53 15.13
346 1414 BERNAB LORENZO M M3 61 ASD PEDALE SORESINESE ITA 06:08:53 06:06:59 02:05:05 15.13
347 1220 CALICCHIA MATTEO M ELMT 44 ASD TONI BIKE ITA 06:08:56 06:08:17 02:05:08 15.12
348 78 LIVERANI STEFANO M M4 46 BIKE INNOVATION SQUADRA ITA 06:09:17 06:09:06 02:05:28 15.11
CORSE A.S.D.
349 188 MICHETTONI LUCA M M5 37 A.S.D. BIKER IN LIBERTA' ITA 06:09:22 06:09:08 02:05:33 15.11
350 1109 CARO MATTEO M M1 34 ASD MTB EVALOON ITA 06:09:28 06:08:42 02:05:39 15.10
351 585 GORLA EROS M M2 66 TEAM MTB BEE AND BIKE- ITA 06:09:34 06:09:16 02:05:46 15.10
BREGNANO
352 1067 CAMPO GASPARE M M3 62 ASD PANORMUS BIKE TEAM ITA 06:10:05 06:09:16 02:06:16 15.08
353 249 SAVORANI SANDRO M M7+ 3 A.S.D. BIKERS FOGNANO ITA 06:10:08 06:09:44 02:06:19 15.08
354 973 VILLA FRANCESCO M ELMT 45 CICLISTICA SAMPOLESE ITA 06:10:35 06:10:26 02:06:47 15.06
355 842 FARES BRUNO M M6 19 A.S.D. BIKER IN LIBERTA' ITA 06:10:45 06:10:31 02:06:57 15.05
356 841 RE ADAMO M M7+ 4 A.S.D. BIKER IN LIBERTA' ITA 06:10:45 06:10:28 02:06:57 15.05
357 1266 RENNA SABINO M M1 35 B'TWIN RACING TEAM ITA 06:10:46 06:09:37 02:06:58 15.05
DECATHLON ITALIA
358 1558 BONELLI ROBERTO M M5 38 CICLI BACCHETTI ITA 06:10:46 06:09:03 02:06:58 15.05
359 1441 DE WAARD PIM M M5 39 MTB de Zeeleeuw NED 06:10:47 06:10:16 02:06:58 15.05
360 243 CASADEI MARCO M M4 47 TEAM ROWA ITA 06:10:50 06:10:26 02:07:01 15.05
361 825 LAERA PAOLO M M6 20 CICL. TERONTOLA ATAKAMA ITA 06:10:56 06:10:51 02:07:07 15.04
RACE
362 284 CENTAMORI FLAVIO M M4 48 TEAM CICLOPE MTB ITA 06:12:10 06:11:34 02:08:21 14.99
363 1406 SANDRIN DAVIDE M M4 49 PEPEBIKE X-TEAM ASD ITA 06:12:27 06:11:39 02:08:39 14.98
364 288 MEREGALLI STEFANO M ELMT 46 EASY RIDE ITA 06:12:38 06:12:10 02:08:49 14.97
365 347 TAMBORINI LUIGI M M2 67 SULZ DULZ ASD ITA 06:12:40 06:11:52 02:08:51 14.97
366 514 BABINI GIOVANNI M M6 21 TEAM PASSION FAENTINA ITA 06:12:41 06:12:35 02:08:52 14.97
367 1006 TROESCH DANILE F EWS-W1 3 VC STE CROIX EN PLAINE FRA 06:12:44 06:11:53 02:08:55 14.97
368 4F FERRERO NICOLETTA F DE 5 ROERO SPEED BIKE ITA 06:12:51 06:12:44 02:09:03 14.97
369 464 MERLINI FRANCESCO M M2 68 A.S.D. MBM (MOBILITY BIKE ITA 06:12:54 06:12:50 02:09:06 14.96
MOTION)
370 618 MUCCIOLI MIRKO M M3 63 SAN MARINO MTB TEAM SMR 06:12:57 06:12:01 02:09:09 14.96
371 405 SALVATORI MARTA F EWS-W1 4 ASD BIKERS RACING TEAM ITA 06:13:18 06:13:05 02:09:30 14.95
372 632 BUGIOLACCHIO LUCA M M3 64 ASD BIKERS RACING TEAM ITA 06:13:18 06:12:41 02:09:30 14.95
373 561 PALLADINO FRANCESCO M M2 69 ASD PIANOPOLI BIKE TEAM ITA 06:13:24 06:13:05 02:09:35 14.94
374 487 MILAZZO NICOLA M M4 50 ASD ETNA CLIMBIKERS ITA 06:13:31 06:13:25 02:09:43 14.94
375 337 MAFFI MARCO M M5 40 LISSONE MTB ASD ITA 06:13:34 06:12:57 02:09:46 14.94
376 1322 ALIOTTA ROSARIO M M6 22 ASD MTB EMYR ITA 06:13:49 06:13:03 02:10:01 14.93
377 454 PASSARINI DAVIDE M M5 41 TEAM BUSSOLA VERONA ASD ITA 06:13:51 06:13:37 02:10:02 14.93
378 829 PITOTTI FRANCESCO M M3 65 TRIONO RACING MEDICAL ITA 06:14:11 06:13:55 02:10:23 14.91
FREM
379 239 SABBADINI DANIELE M M1 36 PALMER CYCLING TEAM A.S.D. ITA 06:14:18 06:13:42 02:10:30 14.91
380 297 MIRA PAOLO M M5 42 BICITIME RACING TEAM A.S.D. ITA 06:14:20 06:13:53 02:10:31 14.91
381 1475 ALLOVIO PIERGIUSEPPE M M5 43 ASD PEDALE LEYNICESE ITA 06:14:20 06:13:07 02:10:32 14.91
382 1516 FAUSTINI ROBERTO M ELMT 47 ITA 06:14:34 06:12:35 02:10:45 14.90
383 366 REDAELLI GIUSEPPE M M6 23 SIRONE BIKE ASD ITA 06:14:36 06:14:12 02:10:48 14.90
384 267 GRAMISCI ANDREA M M2 70 RACING ROSOLA BIKE A.S.D. ITA 06:15:02 06:14:31 02:11:14 14.88
385 749 OCCHIOLINI IVAN M M4 51 AVIS PRATOVECCHIO-ERREPI- ITA 06:15:24 06:14:49 02:11:36 14.86
LEE COUGAN
386 269 VOZZOLO GIULIO M M4 52 ASD CASSINIS CYCLING TEAM ITA 06:16:00 06:15:16 02:12:12 14.84
387 334 TRAMERI ROMANO M M5 44 SPORTING CLUB LIVIGNO ITA 06:16:07 06:15:19 02:12:19 14.84
388 680 BURLASCHI DIEGO M M3 66 A.S.D.C. VALLE DEL CONCA ITA 06:16:11 06:15:27 02:12:22 14.83
NORDIC WALKING
389 917 ANGORI ANDREA M M2 71 U.C. TRASIMENO ITA 06:16:21 06:16:05 02:12:33 14.83
390 326 ZAFFIGNANI MASSIMO M M4 53 ASD BIKE AND FUN TEAM ITA 06:16:38 06:16:07 02:12:50 14.82
391 1160 BUTT DANIELE M ELMT 48 ASD Pedale Stracco Fabriano ITA 06:16:46 06:14:44 02:12:58 14.81
392 414 ANGELI MARCO M M3 67 GRUPPO T.N.T. A.S.D. ITA 06:16:47 06:16:34 02:12:58 14.81
393 1559 DINI ANDREA M M4 54 I MUFLONI ITA 06:16:49 06:14:45 02:13:01 14.81
394 1246 SERCECCHI ANDREA M M3 68 IMOLA BIKE ITA 06:16:51 06:16:11 02:13:03 14.81
395 241 SCHIAROLI MARCO M M2 72 TEAM CINGOLANI ITA 06:17:00 06:16:35 02:13:12 14.80
396 506 MAGRINI STEFANO M M6 24 TEAM PASSION FAENTINA ITA 06:17:03 06:16:55 02:13:14 14.80
Servizio a cura di OTC SRL 29/07/2017 18:40 sigle giudici
[Link] - Classifiche e risultati su ENDU - [Link] Pagina 7 di 22
Classifica generale
[Link] FCI : 127491 Tipo di gara: (XCM N) Marathon
Organizzazione: 02K3574 ALTA VALTELLINA BIKE asd PROVVISORIA
pos pett. atleta sex cat. [Link] team naz race time real time gap medi
a
397 80 RUSSO PASQUALE M M4 55 ASD HGV RACING CICLI ITA 06:17:04 06:16:56 02:13:16 14.80
CONTE FANS BIKE
398 1421 DOGAO MASSIMO M M4 56 BIKE CLUB 2000 ITALIANJET ITA 06:17:22 06:16:36 02:13:33 14.79
399 576 FABIETTI FABRIZIO M M4 57 A.S.D. MTB CASTIGLIONE DEL ITA 06:17:31 06:17:27 02:13:43 14.78
LAGO
400 541 SIMONCINI DANIELE M M3 69 ASD TEAM BIKE I BOLLORI ITA 06:17:32 06:17:02 02:13:44 14.78
401 505 FORTIN STEFANO M M2 73 S.C. TRIANGOLO LARIANO ITA 06:17:51 06:17:31 02:14:03 14.77
A.S.D.
402 1261 MASTRI FRANCESCO M M2 74 A.S.D. FREE BIKERS PEDALE ITA 06:17:59 06:16:54 02:14:10 14.76
FOLLONICHESE
403 228 GABELLINI LORIS M M5 45 TEAM ROWA ITA 06:18:00 06:17:35 02:14:11 14.76
404 1492 BONOMELLI LUCA M M3 70 TOKENS CICLI BETTONI COSTA ITA 06:18:03 06:16:57 02:14:15 14.76
VOLPINO
405 1250 GIOMBETTI GIANCARLO M M4 58 TEAM CINGOLANI ITA 06:18:53 06:17:22 02:15:05 14.73
406 104 LANCINI ERMANNO M M1 37 GRUPPO NULLI ISEO MTB ITA 06:19:01 06:18:38 02:15:13 14.72
A.S.D
407 1493 TURETTA NICHOLAS M ELMT 49 LORIS BIKE ITA 06:19:04 06:17:29 02:15:16 14.72
408 622 MATTEI DENIS M M3 71 SAN MARINO MTB TEAM SMR 06:19:15 06:18:42 02:15:27 14.71
409 1093 BECIANI FRANCO M M5 46 ASD SAMBI TEAM ITA 06:19:19 06:18:54 02:15:31 14.71
410 1029 GIGANTE ROBERTO M M5 47 ASD UGGIATESE BICI BIKE 93 ITA 06:19:21 06:18:09 02:15:33 14.71
411 477 CAVAZZUTI BARNABA M M1 38 DNA BIKE TEAM A.S.D. ITA 06:19:28 06:19:11 02:15:39 14.71
412 1338 SERRI DAVIDE M M4 59 DNA BIKE TEAM A.S.D. ITA 06:19:34 06:18:50 02:15:46 14.70
413 143 PEDUZZI ROBERTO M M3 72 TEAM 2ACERI A. S. ITA 06:19:35 06:19:13 02:15:47 14.70
DILETTANTISTICA
414 360 PINI FABIO M M3 73 TEAM OLIVETO ASD ITA 06:19:45 06:19:02 02:15:56 14.69
415 820 BENEDETTI MAURO M M4 60 ASD TEAM ALL4 CYCLING - ITA 06:20:04 06:19:56 02:16:15 14.68
BDC
416 862 BRUSA ALBERTO M M5 48 TEAM DOTTA BIKE ITA 06:20:15 06:20:07 02:16:26 14.68
417 484 CAMPANA GIOVANNI M M5 49 GRUPPO MTB PEDALANDO AS ITA 06:20:19 06:20:03 02:16:30 14.67
418 719 GHILARDI MIRKO M M2 75 FREE BIKE NEMBRO ITA 06:20:25 06:19:53 02:16:36 14.67
419 1496 CEDRONI PAOLO M M4 61 MTB CLUB SPOLETO ITA 06:20:33 06:18:21 02:16:45 14.66
420 1549 HUEP TOBIAS M M6 25 GER 06:20:37 06:18:33 02:16:49 14.66
421 1536 PERATHONER ALEXANDER M ELMT 50 ITA 06:20:41 06:18:25 02:16:53 14.66
422 490 GELFI MARCO M M5 50 OESTARA CYCLING TEAM ITA 06:20:49 06:20:41 02:17:00 14.65
423 987 LANZONI DAVIDE M M3 74 LISSONE MTB ASD ITA 06:21:21 06:21:08 02:17:33 14.63
424 1560 CAPOZZI MASSIMILIANO M M4 62 TEAM SPACEBIKES ITA 06:21:25 06:19:44 02:17:37 14.63
425 709 BONDI SIMONE M M4 63 MT BIKE ARGENTARIO ITA 06:21:32 06:21:10 02:17:43 14.63
426 682 ARTEGIANI ROBERTO M M6 26 G.S. CICLO CLUB CALCINELLI ITA 06:21:37 06:20:39 02:17:48 14.62
427 531 SOCCI ENRICO M M4 64 TEAM SPACCO A.S.D. ITA 06:21:38 06:21:28 02:17:50 14.62
428 665 GASPERONI LEONARDO M M3 75 GS COSMOS SMR 06:22:18 06:21:47 02:18:30 14.60
429 637 BURZACCA ANDREA M M6 27 SURFING SHOP SPORT ITA 06:22:20 06:22:00 02:18:31 14.60
PROMOTION
430 1452 CERESOLI LUCA M M2 76 ASD LORIS BIKE ITA 06:22:25 06:21:28 02:18:37 14.59
431 266 RIVA NICOLA M M2 77 GEFO ITA 06:22:48 06:22:10 02:19:00 14.58
432 412 BATTAGLIA FRANCESCO M M3 76 FREEDOM BIKE A.S.D. ITA 06:22:55 06:22:43 02:19:07 14.57
433 370 TALLONI SIMONE M M1 39 GRUPPO BI' ITA 06:22:56 06:22:19 02:19:08 14.57
434 352 SELETTI ANGELO M M7+ 5 ALTA VALTELLINA BIKE ASD 06:22:59 06:22:49 02:19:10 14.57
435 1129 GINI LIVIO M M4 65 U.S. CHIAVENNESE ITA 06:23:18 06:22:32 02:19:30 14.56
436 941 FABBRI MAURO M M5 51 TEAM BIKE [Link] ITA 06:23:38 06:23:16 02:19:49 14.55
437 1357 GENTILINI MASSIMILIANO M M4 66 A.S.D. CAPODIVENTO MTB ITA 06:23:58 06:23:11 02:20:09 14.53
ARTEGNA
438 440 PALINI FABIO M M2 78 RS BIKE ITA 06:23:59 06:23:24 02:20:10 14.53
439 752 DAL PINO NICOL M ELMT 51 TOSCANA TRACKS - CINGHIALI ITA 06:23:59 06:23:23 02:20:11 14.53
VERSILIA
440 726 TARANI FABRIZIO M M5 52 TRIONO RACING MEDICAL ITA 06:24:10 06:23:32 02:20:22 14.53
FREM
441 62 ROCCA VALENTINA F EWS-W1 5 TEAM TODESCO ITA 06:24:13 06:23:51 02:20:24 14.52
442 292 CASAGRANDE FRANCESCO M M2 79 A.S.D. G.S. MONDOBICI ITA 06:24:16 06:23:47 02:20:28 14.52
443 254 BERGAMELLI PIETRO M M6 28 FREE BIKE NEMBRO ITA 06:24:19 06:23:52 02:20:30 14.52
444 1412 CHITARRONI PAOLO M M1 40 A.S.D. CRAZY BIKE ITA 06:24:27 06:23:22 02:20:39 14.51
445 1544 COLOMBO GIORGIO M M5 53 TEAM MANUEL BIKE ITA 06:25:23 06:24:38 02:21:34 14.48
446 1502 CHIGIONI ROBERTO M M2 80 ASD TEAM BRAMATI ITA 06:25:51 06:24:19 02:22:02 14.46
447 478 ZITTI LUCA M M4 67 A.S.D. AEROSKITEAM PRO ITA 06:25:59 06:25:42 02:22:11 14.46
CYCLING
448 712 VALLICELLI PAOLO M M3 77 PEDAL CLUB OFFICINA A ITA 06:26:03 06:25:27 02:22:15 14.45
PEDALI ASD
449 26 DESTEFANIS DANILO M EL 37 ROERO SPEED BIKE 06:26:09 06:26:03 02:22:20 14.45
450 1207 MASIERO MICHELE M ELMT 52 6.9 TEAM ITA 06:26:10 06:24:20 02:22:22 14.45
451 736 PORCEDDA ORLANDO M M5 54 TEAM DUEMME CORSE ASD ITA 06:26:12 06:25:25 02:22:24 14.45
452 1411 GATTA ALESSANDRO M M1 41 GRUPPO T.N.T. A.S.D. ITA 06:26:19 06:25:51 02:22:30 14.44
Servizio a cura di OTC SRL 29/07/2017 18:40 sigle giudici
[Link] - Classifiche e risultati su ENDU - [Link] Pagina 8 di 22
Classifica generale
[Link] FCI : 127491 Tipo di gara: (XCM N) Marathon
Organizzazione: 02K3574 ALTA VALTELLINA BIKE asd PROVVISORIA
pos pett. atleta sex cat. [Link] team naz race time real time gap medi
a
453 515 VANNINI LUCA M ELMT 53 UISP COMITATO [Link] ITA 06:26:24 06:26:06 02:22:36 14.44
MASSA
454 1147 FABBRI MASSIMO M M4 68 ITA 06:26:54 06:25:13 02:23:06 14.42
455 1463 MONTEMURNO LORENZO M M2 81 POLISPORTIVA MONTEVEGLIO ITA 06:27:11 06:25:20 02:23:23 14.41
A.S.D.
456 1251 PACI EDMONDO M M4 69 ASD A.S.C. CICLI CLEMENTI ITA 06:27:16 06:25:05 02:23:27 14.41
457 1542 GROSSI SIMONE M M2 82 SPRINT BIKE ASD ITA 06:27:26 06:26:44 02:23:37 14.40
458 577 LOCCI ANDREA M ELMT 54 MTB CLUB SPOLETO ITA 06:27:27 06:27:02 02:23:38 14.40
459 1456 COMINI CHRISTIAN M M4 70 ASD CICLOAMATORI ITA 06:27:39 06:26:15 02:23:51 14.39
CALCINATO
460 1286 ASTOLFI ANDREA M M1 42 CICLO HOBBY M.T.B. TEAM ITA 06:27:56 06:26:05 02:24:07 14.38
461 1378 ROSSI ROBERTO M M1 43 MTB FRANCIACORTA ITA 06:28:06 06:25:53 02:24:18 14.38
CAPRIOLO
462 282 ROMANI STEFANO M M6 29 TRIONO RACING MEDICAL ITA 06:28:07 06:27:37 02:24:18 14.38
FREM
463 338 RIBOLDI DAVIDE M M1 44 LISSONE MTB ASD ITA 06:28:07 06:27:29 02:24:19 14.38
464 1353 TERMALI ORIANO M M7+ 6 ALFREDO ORIANI A.S.D. ITA 06:28:09 06:26:56 02:24:20 14.38
465 417 BENEDETTI FABIO M M4 71 TEAM DE ROSA SANTINI ITA 06:28:42 06:28:32 02:24:54 14.36
466 121 SIGHEL MAURIZIO M M6 30 GSA PENNE SPRINT ITA 06:28:51 06:27:49 02:25:02 14.35
467 532 RACO LUIGI M M5 55 US BORMIESE ITA 06:28:52 06:28:48 02:25:03 14.35
468 880 NISI ANDREA M M1 45 ARES BIKE TEAM ASD ITA 06:28:56 06:28:53 02:25:08 14.35
469 281 LOCCI DARIO M M3 78 TRIONO RACING MEDICAL ITA 06:28:58 06:28:29 02:25:10 14.35
FREM
470 1426 BRENNA RICCARDO M M2 83 ASD 2 X 2 TEAM BRENNA ITA 06:29:09 06:27:58 02:25:20 14.34
471 1117 SANTIN NICOLA M M1 46 MTB ZERO ASFALTO ITA 06:29:20 06:27:34 02:25:32 14.33
472 1164 DELLE FONTANE DAMIANO M M2 84 CYCLO ONES ITA 06:29:25 06:28:10 02:25:37 14.33
473 1099 COMI MARIO M M4 72 G.S. MASSI' SUPERMERCATI ITA 06:29:35 06:28:32 02:25:46 14.32
474 476 CAVALLO MASSIMILIANO M M2 85 S.C. FAGNANO NUOVA ITA 06:29:55 06:29:27 02:26:06 14.31
475 323 PARUSCIO MARIO M M3 79 CRAL BANCA POPOLARE DI ITA 06:30:38 06:29:58 02:26:50 14.28
SONDRIO
476 1334 GURRIERI GIACOMO M M2 86 A.S.D. CICLI COPPARO- LIOTTO ITA 06:30:40 06:29:10 02:26:52 14.28
477 309 MENECHINI ROMANO M M6 31 MTB CLUB SPOLETO ITA 06:30:55 06:30:18 02:27:07 14.27
478 1084 SCHERINI GIANMARCO M M4 73 ASD SPORTIVA LANZADA ITA 06:30:57 06:30:08 02:27:08 14.27
479 601 SLLINGER SABINE F EWS-W1 6 [Link] AUT 06:30:59 06:30:23 02:27:10 14.27
480 1420 CAPIROSSI MASSIMO M M3 80 ALFREDO ORIANI ASD ITA 06:31:08 06:29:57 02:27:20 14.27
481 1533 GALANTI DANIELE M M2 87 ITA 06:31:15 06:30:28 02:27:26 14.26
482 189 MASCIA CARLO M M1 47 ASD RUNNING WORLD ITA 06:31:33 06:31:16 02:27:45 14.25
483 374 BONETTI EMILIO M M2 88 TEAM SPACEBIKES ITA 06:31:47 06:31:06 02:27:59 14.24
484 446 PIETRELLI GIANNI M M5 56 TUTTO BIKE TEAM KONA ITA 06:32:41 06:32:31 02:28:53 14.21
485 445 GAMBERI YURI M M3 81 TUTTO BIKE TEAM KONA ITA 06:32:41 06:32:29 02:28:53 14.21
A.S.D.
486 204 VENZA CLAUDIO M M3 82 SPRINT BIKE LUMEZZANE ITA 06:32:49 06:32:27 02:29:01 14.21
A.S.D.
487 1165 LORETELLI GIANMARCO M ELMT 55 ASD Pedale Stracco Fabriano ITA 06:33:02 06:30:59 02:29:13 14.20
488 774 SAVIGNANO CRISTIAN M M3 83 ASD SESSANTALLORA ITA 06:33:08 06:32:11 02:29:20 14.19
489 365 ROSA CARLO M M4 74 ASD VAL SANMARTINO ITA 06:33:24 06:32:44 02:29:35 14.18
490 1311 PARODI EMANUELE M M4 75 TEAM CENTOXCENTOBICI ITA 06:33:43 06:32:38 02:29:55 14.17
491 962 LACARBONARA GABRIELE M ELMT 56 TEAM BIKE MARTINA FRANCA ITA 06:33:44 06:33:19 02:29:55 14.17
492 1072 OLMI ALBERTO M M6 32 CANOSSA MERIDA ITA 06:33:46 06:32:36 02:29:57 14.17
493 761 RAGNI MATTIA M M2 89 RACING ROSOLA BIKE A.S.D. ITA 06:33:50 06:33:21 02:30:01 14.17
494 1524 MASSARI EMANUELE M M2 90 ASD SC PEDALE PAULLESE ITA 06:33:53 06:32:39 02:30:04 14.17
495 948 DEL BIANCO CARLO M M3 84 AVIS BIKE CINGOLI ITA 06:33:56 06:32:40 02:30:07 14.17
ALBERTO
496 567 FORTI LEONARDO M M4 76 FREE BIKE CESENA ITA 06:34:12 06:34:04 02:30:24 14.16
497 1180 SALA MATTIA M ELMT 57 POLISPORTIVA BERNATE ITA 06:34:39 06:33:15 02:30:51 14.14
A.S.D
498 899 CASTALDI PAOLO M M4 77 ASD TEAM BIKE [Link] ITA 06:34:45 06:34:23 02:30:56 14.14
499 589 VENDRAMEL GIOVANNI M M3 85 GEMINI TEAM ITA 06:35:24 06:35:06 02:31:36 14.11
500 1526 TOGNI ANGELO M M7+ 7 TEAMBIKEALME' A.S.D. ITA 06:35:25 06:35:06 02:31:37 14.11
501 1509 MONTEVERDI DAVIDE M M1 48 TEAMBIKEALME' A.S.D. ITA 06:35:26 06:35:04 02:31:37 14.11
502 1510 EPIS CRISTIAN M M3 86 TEAMBIKEALME' A.S.D. ITA 06:35:26 06:35:04 02:31:37 14.11
503 450 BENFATTO SANTO M M4 78 ASD ETNA CLIMBIKERS ITA 06:35:34 06:35:25 02:31:46 14.11
504 1468 PERCUDANI ANTONIO M M3 87 CANOSSA MERIDA ITA 06:35:43 06:34:34 02:31:55 14.10
505 1465 DORIA ALESSANDRO M M4 79 ASD TEAM ALL4 CYCLING - ITA 06:36:26 06:35:22 02:32:38 14.08
BDC
506 924 TRALDI ERIK M ELMT 58 TEAM SCULAZZO ITALIA ASD ITA 06:36:26 06:36:08 02:32:38 14.08
507 1069 MOLTENI ANDREA M ELMT 59 SIRONE BIKE ASD ITA 06:36:28 06:34:56 02:32:40 14.07
508 584 SCOL PAOLO M M5 57 U.C. ANGERESE ITA 06:36:30 06:36:23 02:32:41 14.07
509 1427 BONACINA LUCA M M1 49 ASD 2 X 2 TEAM BRENNA ITA 06:36:31 06:35:20 02:32:43 14.07
Servizio a cura di OTC SRL 29/07/2017 18:40 sigle giudici
[Link] - Classifiche e risultati su ENDU - [Link] Pagina 9 di 22
Classifica generale
[Link] FCI : 127491 Tipo di gara: (XCM N) Marathon
Organizzazione: 02K3574 ALTA VALTELLINA BIKE asd PROVVISORIA
pos pett. atleta sex cat. [Link] team naz race time real time gap medi
a
510 1021 MASSEI ROBERTO M M2 91 A.S.D. WAYPOINT MTB ITA 06:36:35 06:35:05 02:32:46 14.07
FILOTTRANO
511 1229 REGAZZI ALBERTO M M4 80 A.S.D. GREEN DEVILS TEAM ITA 06:37:15 06:36:21 02:33:27 14.05
512 702 CATENI MARCO M M3 88 ITA 06:37:20 06:36:48 02:33:31 14.04
513 1363 GRECO SIMONE M M3 89 B'TWIN RACING TEAM ITA 06:37:32 06:35:54 02:33:44 14.04
DECATHLON ITALIA
514 1494 PATTERLINI ANTONIO M M5 58 BELTRAMI TSA ARGON 18 TRE ITA 06:37:41 06:36:33 02:33:52 14.03
COLLI
515 1385 FERRI ROBERTO M M5 59 TEAM MTB LOMAZZO ITA 06:37:45 06:36:24 02:33:57 14.03
516 99 FAZZINI MAURO M M2 92 A.S. PREMANA ITA 06:37:49 06:37:34 02:34:01 14.03
517 850 FERRANTE FLAVIO M M5 60 GSA PENNE SPRINT ITA 06:37:53 06:37:42 02:34:05 14.02
518 984 CARDIN GIORGIO M M5 61 GEMINI TEAM ITA 06:37:53 06:37:38 02:34:05 14.02
519 1240 GENOVA GIOVANNI M M2 93 SENZAFRENI MTB CLUB ITA 06:38:03 06:37:08 02:34:14 14.02
520 732 FIUZZI ANDREA M M1 50 MTB CESENA ITA 06:38:20 06:37:57 02:34:32 14.01
521 1126 VANINETTI FABIO M M5 62 U.S. CHIAVENNESE ITA 06:38:32 06:37:56 02:34:43 14.00
522 378 SALVI MATHIAS M M3 90 2R BIKE STORE - A.S.D. ITA 06:38:38 06:38:00 02:34:50 14.00
523 1037 MAGALOTTI YURI M M4 81 G.S BULGARNO' BIKE 2008 ITA 06:38:38 06:37:27 02:34:50 14.00
ASD
524 1183 TOMMASI LORIS M M3 91 TEAM BUSSOLA VERONA ASD ITA 06:38:53 06:37:29 02:35:05 13.99
525 489 BIANCIARDI ANDREA M M5 63 ASD BIKESHOP TEAM ROMA ITA 06:38:54 06:38:39 02:35:05 13.99
526 233 ZAVAN FABIO M M5 64 BIKE CLUB 2000 ITALIANJET ITA 06:38:58 06:38:23 02:35:10 13.99
527 512 CERESA LIBERO M M3 92 G.S. STUDIO MODA - HAIR ITA 06:39:13 06:39:01 02:35:24 13.98
GALLERY
528 1457 PIACENTINI GIANBATTISTA M M3 93 COLOGNESE BIKE ITA 06:39:16 06:37:29 02:35:27 13.98
529 1328 ROVINELLI RICCARDO M M4 82 TEAM SPACCO A.S.D. ITA 06:39:17 06:37:40 02:35:29 13.98
530 1320 TOLLIN MARCO M M4 83 BIKE FACTOR ITA 06:39:18 06:37:55 02:35:30 13.97
531 517 BASCHIROTTO NAZZARIO M M2 94 S.C. BARBIERI ITA 06:39:22 06:39:06 02:35:34 13.97
532 298 LEONINI MORGAN M M2 95 ASD MTB SUISIO ITA 06:39:42 06:38:58 02:35:54 13.96
RODOLFO
533 152 SABINO NICOLA M M5 65 BIKE CLUB 2000 ITALIANJET ITA 06:39:45 06:39:25 02:35:57 13.96
534 1198 MINIELLO LEO M M2 96 ASD TEAMBIKE [Link] ITA 06:40:03 06:39:20 02:36:15 13.95
535 894 MAGNANI DAVIDE M M2 97 ASD PROBIKERS ITA 06:40:29 06:40:18 02:36:41 13.93
536 537 TORNATORE FRANCESCO M M2 98 CICLI NERI TEAM ASD ITA 06:40:33 06:40:26 02:36:44 13.93
537 232 GEROLDI FABIO M M3 94 FUNTOS BIKE - NRC ITA 06:40:33 06:40:06 02:36:45 13.93
538 1257 VITI MARCO M M1 51 ASD MASTINI - AVIS ITA 06:40:34 06:39:14 02:36:46 13.93
539 753 MENCARELLI MICHELE M M4 84 [Link]. PEDALE AGUGLIANESE ITA 06:40:49 06:40:15 02:37:01 13.92
540 582 GREGORI ANTONIO M M6 33 COMERO BIKE ITA 06:40:54 06:40:43 02:37:06 13.92
541 1159 BERNARDINI IVANO M M5 66 ITA 06:40:58 06:39:32 02:37:10 13.92
542 568 BONOMO DAVIDE M M2 99 BUSSACCHINI LUIGI A.S.D. ITA 06:41:04 06:40:49 02:37:16 13.91
543 859 ZANNONI MARCO M M3 95 NEW MOTOR BIKE A.S.D. ITA 06:41:19 06:41:10 02:37:31 13.90
544 831 RONCASSAGLIA GABRIELE M M4 85 BAMBANA BIKE ITA 06:41:30 06:41:18 02:37:41 13.90
545 590 COBELLI LUCA M M4 86 TEAM 2ACERI A. S. ITA 06:41:32 06:41:04 02:37:43 13.90
DILETTANTISTICA
546 493 ROSSI AUGUSTO M M2 100 PROVIS BIKE ITA 06:41:36 06:41:29 02:37:48 13.89
547 1312 PARODI ALESSANDRO M M4 87 TEAM CENTOXCENTOBICI ITA 06:41:39 06:40:34 02:37:51 13.89
548 402 GORETTI ORIANA F EWS-W1 7 A.S.D. MBM (MOBILITY BIKE ITA 06:41:41 06:41:36 02:37:53 13.89
MOTION)
549 813 BATTANI GIANNI M M7+ 8 ASD POLISPORTIVA CEDAS ITA 06:41:44 06:41:09 02:37:55 13.89
LANCIA VERRONE
550 318 BISOGNO LORENZO M M5 67 GEMINI TEAM ITA 06:41:57 06:41:10 02:38:09 13.88
551 1513 BRESCHI ALESSANDRO M M5 68 TEAM CYCLING RH+ A.S.D. ITA 06:42:00 06:41:26 02:38:12 13.88
552 423 CHIANTELLO ANDREA M M3 96 ASD ETNA CLIMBIKERS ITA 06:42:04 06:41:55 02:38:15 13.88
553 614 GALLINUCCI ALESSANDRO M ELMT 60 ADVENTURE TEAM ITA 06:42:04 06:41:15 02:38:15 13.88
554 1499 MERLI TONINO M M5 69 A.S.D. BIKER IN LIBERTA' ITA 06:42:14 06:41:27 02:38:26 13.87
555 116 CREMASCHINI M M4 88 GRUPPO NULLI ISEO MTB ITA 06:42:22 06:41:58 02:38:33 13.87
MASSIMILIANO A.S.D
556 1528 GULIA ANDREA M M2 101 ASD GS CARNELLO ITA 06:42:32 06:40:27 02:38:44 13.86
557 968 PASCUCCI OSTILIO M M5 70 AVIS BIKE CINGOLI ITA 06:42:33 06:42:07 02:38:44 13.86
558 624 CECCHINI MATTEO M M3 97 FREEDOM BIKE A.S.D. ITA 06:42:53 06:42:08 02:39:05 13.85
559 452 OTTONI ANDREA M M5 71 IRIDE CYCLING TEAM ITA 06:42:56 06:42:27 02:39:08 13.85
560 578 TIZI LUCA M M2 102 MTB CLUB SPOLETO ITA 06:43:03 06:42:38 02:39:15 13.84
561 237 VAGO ANDREA M M3 98 TEAM MTB LOMAZZO ITA 06:43:17 06:42:44 02:39:28 13.84
562 499 IMPERIALI IVANO M M4 89 BICI BIKE 93 ITA 06:43:20 06:43:11 02:39:32 13.83
563 1118 KGL NIKI M M1 52 OPTIK RANTASCHA AUT 06:43:39 06:42:56 02:39:50 13.82
564 261 MASCHERPA MARIO M M4 90 A.S.D. A.T.B. CROCE VERDE ITA 06:43:45 06:43:18 02:39:57 13.82
FERMO
565 1453 SAGRAFENA MASSIMILIANO M M4 91 "A.S.D. COLLI ALBANI MTB" ITA 06:43:55 06:42:14 02:40:07 13.81
566 908 NOCENTINI LEONARDO M M5 72 ITA 06:43:57 06:43:28 02:40:08 13.81
Servizio a cura di OTC SRL 29/07/2017 18:40 sigle giudici
[Link] - Classifiche e risultati su ENDU - [Link] Pagina 10 di 22
Classifica generale
[Link] FCI : 127491 Tipo di gara: (XCM N) Marathon
Organizzazione: 02K3574 ALTA VALTELLINA BIKE asd PROVVISORIA
pos pett. atleta sex cat. [Link] team naz race time real time gap medi
a
567 1388 KOSSLER CRISTIAN M M3 99 FORMAGGILANDIA2 ITA 06:43:58 06:43:17 02:40:09 13.81
MALGRATE ASD
568 588 POZZI MAURO M M4 92 [Link] TEAM PERUFFO ITA 06:44:00 06:43:38 02:40:12 13.81
569 790 SCASSAGREPPI FABIO M M5 73 A.S.D. LARIS BIKE ITA 06:44:22 06:43:49 02:40:34 13.80
570 715 CLINI MIRKO M M3 100 ASD CICLISMO MONTECCHIO ITA 06:44:22 06:43:48 02:40:34 13.80
571 351 RAINOLTER MAURO M M3 101 ALTA VALTELLINA BIKE ASD 06:44:28 06:43:46 02:40:40 13.80
572 409 FACCHINETTI GUIDO M M2 103 G.S.R. FERRERO ITA 06:44:33 06:44:14 02:40:44 13.79
573 500 BERTOLINI FABIO M M3 102 A.S.D. LUNIGIANAXBIKE ITA 06:44:33 06:44:14 02:40:44 13.79
574 1439 PERTICI MASSIMO M M5 74 ASD BY BIKE ITA 06:44:33 06:43:25 02:40:45 13.79
575 308 GALLI FRANCESCO M M6 34 SIRONE BIKE ASD ITA 06:45:12 06:44:40 02:41:24 13.77
576 1230 CHIARINI REMO M M4 93 IMOLA BIKE ITA 06:45:40 06:45:00 02:41:52 13.76
577 1259 PARADISI ANDREA M M2 104 ASD MASTINI - AVIS ITA 06:46:02 06:44:49 02:42:14 13.74
578 448 FABBRI LUCA M M4 94 TUTTO BIKE TEAM KONA ITA 06:46:04 06:45:35 02:42:15 13.74
579 593 BELLANTUONI GIANLUIGI M M4 95 US BORMIESE ITA 06:46:12 06:45:47 02:42:23 13.74
580 845 PENSATO MICHELE M M3 103 GRANBIKE VELO CLUB ITA 06:46:12 06:46:08 02:42:23 13.74
581 368 GALLINI ALBERTO M M2 105 ASD CICLOAMATORI ITA 06:46:23 06:45:39 02:42:35 13.73
CALCINATO
582 1539 RACITI PAOLO MARIA M M4 96 A.S.D. MONGIBELLO MTB ITA 06:46:39 06:45:53 02:42:50 13.72
TEAM
583 1292 BIONDI ROBERTO M M5 75 ASD SHALOM ITA 06:46:43 06:45:20 02:42:54 13.72
584 739 BOTO MARCO M M5 76 GS VEROCA ITA 06:46:47 06:46:11 02:42:58 13.72
585 221 ONGARI SIMONA F EWS-W1 8 TEAM DUEMME CORSE ASD ITA 06:47:07 06:46:21 02:43:19 13.71
586 579 BORGHESI CHRISTIAN M M3 104 CESENA BIKE ITA 06:47:57 06:47:39 02:44:08 13.68
587 421 DE FINI CLAUDIO M M3 105 ASD LAVICA BIKE ITA 06:47:57 06:47:42 02:44:08 13.68
588 511 CASTORRI SIRO M M7+ 9 CESENA BIKE ITA 06:48:02 06:47:40 02:44:14 13.68
589 555 OTTOLINI PIERMARIO M M5 77 GS FLORES FERRERA ITA 06:48:03 06:47:35 02:44:15 13.68
590 685 MIGLIORE FABIO M M4 97 ASD TONI BIKE ITA 06:48:32 06:48:02 02:44:43 13.66
591 1398 ARRIGONI GIANLUIGI M M3 106 GEFO ITA 06:49:02 06:47:44 02:45:14 13.64
592 1448 SBARBARO LORENZO M M4 98 SUI 06:49:09 06:47:22 02:45:20 13.64
593 101 LATTANZI STEFANO M M4 99 A.S.D. A.T.B. CROCE VERDE ITA 06:49:16 06:48:59 02:45:27 13.63
FERMO
594 929 COSTA DARIO M M3 107 GEMINI TEAM ITA 06:49:24 06:49:09 02:45:36 13.63
595 1435 GRAZIANI NICOLA M M4 100 DEKA RIDERS TEAM BIKE ITA 06:49:37 06:47:45 02:45:49 13.62
ROMAGNA
596 1081 SAMORI' ENRICO M ELMT 61 TEAM PASSION FAENTINA ITA 06:49:41 06:49:14 02:45:52 13.62
597 853 GRETTER MATTEO M M2 106 ITA 06:49:44 06:49:33 02:45:56 13.62
598 1467 BREMBILLA PAOLO CARLO M M4 101 BOTTANUCO MTB A.S.D. ITA 06:49:45 06:48:14 02:45:56 13.62
599 1275 FORNARI MARCO M M6 35 ARRAMPIBIKE A.S.D ITA 06:49:45 06:48:21 02:45:57 13.62
600 1284 BARSANTI RICCARDO M M5 78 ASD TEAM INVERCOLOR ITA 06:49:46 06:48:20 02:45:57 13.62
601 1089 DAL MONTE DANIELE M M3 108 TRIAL BIKE ITA 06:49:57 06:49:25 02:46:09 13.61
602 1091 BOMBARDINI GIOVANNI M M3 109 TRIAL BIKE ITA 06:49:57 06:49:27 02:46:09 13.61
603 1425 PALUMBO LEONARDO M M1 53 ASD 2 X 2 TEAM BRENNA ITA 06:50:09 06:48:57 02:46:21 13.60
604 1199 VALLERIANI DAVID M M4 102 ASD CENTOTREDICI ITA 06:50:54 06:49:50 02:47:06 13.58
605 95 BARBAGALLO FRANCESCO M M4 103 A.S.D. ETNA FREE BIKE ITA 06:50:55 06:50:37 02:47:07 13.58
606 1341 FUMAGALLI ANTONIO M M3 110 LISSONE MTB ASD ITA 06:51:15 06:49:52 02:47:26 13.57
607 513 CRUSCANTI LEONELLO M M5 79 DONKEY BIKE CLUB A.S.D. ITA 06:51:21 06:51:10 02:47:32 13.57
608 547 BALZANI DOMENICO M M4 104 FREE BIKE CESENA ITA 06:51:21 06:51:16 02:47:32 13.57
609 649 GUSMEROLI MAURO M M5 80 U.S. CHIAVENNESE ITA 06:51:26 06:50:31 02:47:37 13.56
ANTONIO
610 127 PRINCIPI LUCA M M3 111 ARES BIKE TEAM ASD ITA 06:51:34 06:51:17 02:47:46 13.56
611 1484 PISONI DIEGO M ELMT 62 GEMINI TEAM ITA 06:51:42 06:50:22 02:47:54 13.55
612 944 LISSONI GIOVANNI M M3 112 BOTTANUCO MTB A.S.D. ITA 06:51:48 06:51:35 02:47:59 13.55
613 1407 SGUERZI OMAR M M1 54 MTB ZERO ASFALTO ITA 06:51:54 06:50:08 02:48:06 13.55
614 1163 LORENZI GIOVANNI M M2 107 TRITTICI DEL SERRA ITA 06:52:18 06:51:39 02:48:30 13.53
615 583 STORELLI MAURIZIO M M6 36 TEAM RAM BIKE ITA 06:52:28 06:52:12 02:48:40 13.53
616 1051 DE CAPITANI SERGIO M M5 81 ASD BICI CLUB AGRATE ITA 06:53:01 06:51:26 02:49:12 13.51
617 1515 PARADISI MAURO M M5 82 TORRECHIARA ASD ITA 06:53:11 06:51:58 02:49:23 13.51
618 1262 CIARDIELLO GIOVANNI M M2 108 U.C. PONTEDERA A.S.D. ITA 06:53:20 06:52:41 02:49:31 13.50
619 1048 CHIARINI MICHELE M M6 37 ASD VICENZA BIKE ITA 06:53:23 06:52:39 02:49:34 13.50
620 1348 GUIDI DAVIDE M M2 109 RABITI DURI MTB TEAM ITA 06:53:39 06:52:52 02:49:51 13.49
621 1258 GAMBIOLI ALESSANDRO M M1 55 ASD MASTINI - AVIS ITA 06:53:48 06:52:28 02:49:59 13.49
622 468 DE NIGRIS VITO M M7+ 10 A.S.D. MBM (MOBILITY BIKE ITA 06:54:31 06:54:27 02:50:43 13.46
MOTION)
623 465 BIAGIOLI IVANO M M3 113 A.S.D. MBM (MOBILITY BIKE ITA 06:54:31 06:54:25 02:50:43 13.46
MOTION)
624 655 STACCHEZZINI PIETRO M M3 114 NEW MOTOR BIKE A.S.D. ITA 06:55:06 06:54:31 02:51:17 13.44
625 976 CARPI MARCO M M4 105 NEW MOTOR BIKE A.S.D. ITA 06:55:20 06:55:10 02:51:31 13.44
Servizio a cura di OTC SRL 29/07/2017 18:40 sigle giudici
[Link] - Classifiche e risultati su ENDU - [Link] Pagina 11 di 22
Classifica generale
[Link] FCI : 127491 Tipo di gara: (XCM N) Marathon
Organizzazione: 02K3574 ALTA VALTELLINA BIKE asd PROVVISORIA
pos pett. atleta sex cat. [Link] team naz race time real time gap medi
a
626 1191 NANNI LUCA M ELMT 63 HOBBY BIKE MTB ASD ITA 06:55:43 06:54:17 02:51:55 13.42
627 925 TRALDI MARCO M M5 83 TEAM SCULAZZO ITALIA ASD ITA 06:55:48 06:55:31 02:52:00 13.42
628 1083 REINO SILVANO M M4 106 PEDALA CHE TI PASSA ITA 06:55:54 06:54:31 02:52:05 13.42
629 1101 MARIANI DIEGO M M3 115 PEDALA CHE TI PASSA ITA 06:55:54 06:54:32 02:52:05 13.42
630 1337 LONGO MAURO M M3 116 ROCK & ROAD BIKE FRT ITA 06:55:56 06:54:11 02:52:08 13.42
631 538 FABIANI FABIO M M4 107 TEAM SPACCO A.S.D. ITA 06:56:34 06:56:23 02:52:45 13.40
632 870 PIAZZALUNGA STEFANO M M4 108 [Link]-TEAM CICLI ITA 06:56:44 06:56:44 02:52:55 13.39
VEDOVATI
633 668 ERCOLANI EMANUELE M M3 117 GS COSMOS SMR 06:57:05 06:56:32 02:53:16 13.38
634 1306 URLOTTI ANDREA M M2 110 A.S.D. SPORTINSIEME ITA 06:57:15 06:55:25 02:53:26 13.37
635 900 COLLINUCCI MATTIA M ELMT 64 TEAM NOB JOLLYWEAR ITA 06:57:23 06:57:13 02:53:35 13.37
636 604 SACCHETTI THOMAS M M2 111 MONTI GEMELLI BIKE ITA 06:57:53 06:56:59 02:54:04 13.35
637 1454 DARDI SILVIO M M2 112 ALFREDO ORIANI A.S.D. ITA 06:58:07 06:56:55 02:54:19 13.35
638 587 MAPELLI GIORGIO M M6 38 MTB PARRE ITA 06:58:08 06:57:47 02:54:19 13.35
639 258 BRESSAN FABIO M M4 109 TEAM RAM BIKE ITA 06:58:29 06:57:55 02:54:41 13.33
640 535 GORGOLINI MASSIMILIANO M M4 110 FREEDOM BIKE A.S.D. ITA 06:58:43 06:58:33 02:54:54 13.33
641 1543 BURASCHI LUCA M M2 113 GS RAMPI CLUB BRIANZA ITA 06:58:44 06:56:51 02:54:56 13.33
642 697 D'APICE MASSIMO M M6 39 MAGICUNEO ITA 06:58:57 06:58:19 02:55:08 13.32
643 616 ORTU EMANUELE M M4 111 ADVENTURE TEAM ITA 06:58:58 06:58:08 02:55:09 13.32
644 276 MAURI MIRCO M M5 84 TEAM RAM BIKE ITA 06:59:01 06:58:27 02:55:12 13.32
645 1394 MARANGONI FRANCESCO M M1 56 ITA 06:59:04 06:57:21 02:55:15 13.32
646 1438 BRUNI RICO M M2 114 TEAM BIKE PIONIERI ITA 06:59:12 06:58:03 02:55:23 13.31
647 1449 CALABRETTA FAUSTO M M5 85 SUI 06:59:21 06:57:34 02:55:32 13.31
648 807 RAIMONDI LUCA M M2 115 BIKE TEAM MANDELLO ASD ITA 06:59:30 06:59:12 02:55:41 13.30
649 989 TENTORI EMILIANO M M4 112 BIKE TEAM MANDELLO ASD ITA 06:59:30 06:59:15 02:55:42 13.30
650 760 VANINETTI MASSIMO M M3 118 EASY RIDE ITA 06:59:59 06:59:02 02:56:11 13.29
651 96 BAUDO SANTO M M4 113 A.S.D. ETNA FREE BIKE ITA 07:00:04 06:59:45 02:56:15 13.28
652 552 GAROFOLO FABRIZIO M M3 119 GS FLORES FERRERA ITA 07:00:05 06:59:36 02:56:17 13.28
653 1527 JEFFREYS STUART M M4 114 GBR 07:00:08 06:59:11 02:56:19 13.28
654 573 COLLINI ANGELO M M3 120 ASD VENTURI ADVENTURE ITA 07:00:11 06:59:53 02:56:22 13.28
TEAM
655 580 FABBRICA MAURO M M3 121 COLOGNESE BIKE ITA 07:00:39 06:59:41 02:56:51 13.27
656 1065 RODELLA RICCARDO M M2 116 CAMA GROUP POLISPORTIVA ITA 07:00:43 06:59:53 02:56:54 13.26
657 934 GORRIERI RICCARDO M M5 86 VALMARACING TEAM ITA 07:00:50 07:00:34 02:57:01 13.26
658 935 BOVI ALESSIO M M2 117 VALMARACING TEAM ITA 07:00:50 07:00:35 02:57:02 13.26
659 1343 BALBI ALESSIO M ELMT 65 ITA 07:01:00 06:59:11 02:57:12 13.25
660 847 CARLIN WALTER M M5 87 GSA PENNE SPRINT ITA 07:01:04 07:00:45 02:57:16 13.25
661 1460 VALSECCHI FEDERICO M M1 57 GEFO ITA 07:01:07 06:59:50 02:57:18 13.25
MARCO
662 1119 MARTINUCCI ENRICO M M5 88 DAMIANI XBIKE TEAM ITA 07:01:35 07:00:57 02:57:46 13.24
663 64 GRIFI SARA F EWS-W1 9 G.S. ROYAL BIKE SS A.S.D. ITA 07:01:38 07:01:20 02:57:50 13.23
664 1520 RIVA FRANCO M M5 89 S.C. PEDALE GALBIATESE ASD ITA 07:02:08 07:00:35 02:58:20 13.22
665 1090 VALLI EDWARD M M3 122 TRIAL BIKE ITA 07:02:10 07:01:39 02:58:22 13.22
666 1092 CAINI MATTEO M M1 58 ASD SID STRENZ I DENT ITA 07:02:11 07:01:43 02:58:22 13.22
SPORT TEAM
667 690 MONDINI GABRIELE M M2 118 TOKENS CICLI BETTONI COSTA ITA 07:02:16 07:01:48 02:58:28 13.21
VOLPINO
668 1058 PASTORE NICOLA M M3 123 MORELLO'S BROTHERS ASD ITA 07:02:23 07:00:31 02:58:35 13.21
669 1079 BUGIOLACCHI GABRIELE M M4 115 ASDILETTANTISTICA ITA 07:02:26 07:01:53 02:58:38 13.21
ROKKABIKE
670 1351 CASARINI PAOLO M M3 124 ASD SESSANTALLORA ITA 07:02:31 07:01:42 02:58:42 13.21
671 654 MAIO ALESSANDRO M M3 125 ASD GIANNI CYCLING ITA 07:02:43 07:01:56 02:58:55 13.20
672 699 ZANGANI ALESSANDRO M M4 116 ASD VELO CLUB LUNIGIANA ITA 07:02:52 07:02:24 02:59:03 13.20
673 613 SIROTTI MATTEO M M4 117 ADVENTURE TEAM ITA 07:03:07 07:02:20 02:59:18 13.19
674 771 MASTRONARDI RICCARDO M M4 118 SESSANTALLORA ITA 07:03:30 07:02:39 02:59:42 13.18
675 63 ALATI MONICA F W2 2 MATESE MOUNTAIN BIKE ITA 07:03:33 07:03:16 02:59:44 13.17
A.S.D.
676 367 GRAMEGNA STEFANO M M1 59 TOKENS CICLI BETTONI COSTA ITA 07:03:34 07:02:53 02:59:46 13.17
VOLPINO
677 1483 RE RICCARDO M M5 90 S.C. FAGNANO NUOVA ITA 07:03:35 07:02:51 02:59:47 13.17
678 115 LA MONACA GIUSEPPE M M4 119 A.S.D. MONGIBELLO MTB ITA 07:03:50 07:03:36 03:00:02 13.17
TEAM
679 789 PONTI ALBERTO M M4 120 NOSURRENDER CYCLING ITA 07:03:51 07:03:17 03:00:02 13.17
TEAM
680 1296 JOHANSSON TONY M M5 91 GEMINI TEAM SWE 07:04:00 07:02:41 03:00:12 13.16
681 926 BRUNETTI ALESSANDRO M ELMT 66 TEAM SCULAZZO ITALIA ASD ITA 07:04:06 07:03:47 03:00:17 13.16
682 1206 SAVEGNAGO MATTEO M ELMT 67 6.9 TEAM ITA 07:04:19 07:02:09 03:00:31 13.15
683 1167 ROTTOLI FILIPPO M M2 119 TUTTO BIKE TEAM KONA A.S. ITA 07:04:21 07:03:24 03:00:33 13.15
Servizio a cura di OTC SRL 29/07/2017 18:40 sigle giudici
[Link] - Classifiche e risultati su ENDU - [Link] Pagina 12 di 22
Classifica generale
[Link] FCI : 127491 Tipo di gara: (XCM N) Marathon
Organizzazione: 02K3574 ALTA VALTELLINA BIKE asd PROVVISORIA
pos pett. atleta sex cat. [Link] team naz race time real time gap medi
a
D.
684 294 BRAMBILLA ALBERTO M M4 121 LAMBRO BIKE SOVICO ITA 07:04:24 07:03:52 03:00:36 13.15
685 327 PECCENINI DANIELE M ELMT 68 A.S.D. GOODBIKE ITA 07:04:56 07:04:11 03:01:08 13.13
PONTREMOLI VALLI DI ZERI
686 1410 ASCANI MASSIMO M M7+ 11 A.S.D. TEAM BIKE MIRANDA ITA 07:05:00 07:03:20 03:01:11 13.13
687 1111 SIGNOR CLAUDIO M M6 40 IRIDE CYCLING TEAM ITA 07:05:03 07:04:37 03:01:15 13.13
688 1323 PETTINELLI LEONARDO M M6 41 A.S.D. G.S. CANNELLA UISP ITA 07:05:41 07:03:46 03:01:52 13.11
689 1121 GUFFANTI LORENZO M M3 126 MITCHUMM TEAM A.S.D. ITA 07:05:41 07:04:14 03:01:52 13.11
690 942 PANARITI ANGELO M M2 120 ALL BLACKS BIKE ITA 07:06:18 07:05:57 03:02:30 13.09
691 741 COGOLI ALESSIO M M3 127 TEAM ZANOLINI BIKE- ITA 07:06:21 07:05:45 03:02:33 13.09
WALDNER
692 659 ZANELLO UGO OTTAVIANO M M6 42 GEMINI TEAM ITA 07:06:22 07:05:36 03:02:34 13.09
693 1039 SIGNORELLI UBERTO M M4 122 PMP RACING TEAM ITA 07:06:28 07:05:45 03:02:39 13.08
694 1036 ZANIBONI CARLO M M4 123 A.S.D. M.T.B. LA RUPE ITA 07:06:46 07:05:45 03:02:57 13.08
695 1035 BONAIUTI FABIO M M3 128 A.S.D. M.T.B. LA RUPE ITA 07:06:46 07:05:37 03:02:58 13.08
696 486 BRANDOLINI GRAZIANO M M4 124 TEAM CINGHIALI MANNARI ITA 07:06:52 07:06:36 03:03:04 13.07
697 740 LOMBARDI IGOR M M1 60 RACING ROSOLA BIKE A.S.D. ITA 07:07:23 07:06:41 03:03:35 13.06
698 544 FORASTIERI STEFANO M M4 125 A.S.D. GRAMA ITA 07:07:24 07:07:05 03:03:36 13.06
699 533 FIGONI PAOLO M ELMT 69 ARDENNO SPORTIVA ASD ITA 07:07:29 07:07:15 03:03:41 13.05
700 1143 GUSMEROLI CORRADO M M5 92 TEAM TEX ASD ITA 07:08:09 07:07:21 03:04:21 13.03
701 1166 STEFANINI MATTEO M M2 121 TUTTO BIKE TEAM KONA ITA 07:08:18 07:07:22 03:04:30 13.03
A.S.D.
702 1208 TRIACA FRANCESCO M M2 122 U.S. CHIAVENNESE ITA 07:08:27 07:07:50 03:04:39 13.02
703 1105 BISTONI JURI M M1 61 CICLISMO TERONTOLA ITA 07:08:43 07:07:59 03:04:54 13.02
704 1531 CHIANURA CARLO M M2 123 A.S.D. GRUPPO CICLISTICO ITA 07:08:47 07:08:16 03:04:59 13.01
MATELICA
705 882 BOGGI ALESSANDRO M M3 129 ETRURIA HOME BIKE ITA 07:09:13 07:09:08 03:05:25 13.00
706 765 BOTTI LUCA M M2 124 ASD SESSANTALLORA ITA 07:09:24 07:08:32 03:05:36 13.00
707 1124 BRUCATO GIUSEPPE M ELMT 70 ASD BIKE CALTAVUTURO ITA 07:09:33 07:08:41 03:05:44 12.99
708 1103 FALOMI MASSIMO M M4 126 CICL. TERONTOLA ATAKAMA ITA 07:09:43 07:08:58 03:05:54 12.99
RACE
709 981 LAZZARO GIORGIO M M4 127 GEMINI TEAM ITA 07:09:57 07:09:47 03:06:08 12.98
710 675 BONDATTI FERNANDO M M1 62 MTB RUOTE LIBERE ITA 07:10:04 07:09:00 03:06:16 12.97
FERENTINO
711 1269 FRANCIA ANDREA M M2 125 BICITIME RACING TEAM A.S.D. ITA 07:10:10 07:08:56 03:06:22 12.97
712 983 GIANI ROBERTO M M4 128 GEMINI TEAM ITA 07:10:24 07:10:06 03:06:35 12.97
713 689 DI PINTO GREGORIO M M2 126 ASD 5&9 BIKERS TURI ITA 07:10:32 07:09:27 03:06:44 12.96
714 933 GIACOMUCCI M M4 129 ASD GC CRAL CONEROBUS ITA 07:10:39 07:10:36 03:06:51 12.96
MASSIMILIANO
715 1386 RIGAMONTI DIEGO NELSON M M2 127 TEAM MTB LOMAZZO ITA 07:11:17 07:09:09 03:07:29 12.94
716 473 MARCONI SIMONE M M3 130 A.S.D. MBM (MOBILITY BIKE ITA 07:11:23 07:11:16 03:07:34 12.94
MOTION)
717 1175 RAGAZZINI SABATINO M M6 43 MTB CASENTINO ITA 07:12:18 07:11:36 03:08:30 12.91
718 805 CALABRESE MANUELA F W2 3 A.S.D. MONGIBELLO MTB ITA 07:12:21 07:12:08 03:08:33 12.91
TEAM
719 444 PINA ENNIO M M4 130 MITCHUMM TEAM A.S.D. ITA 07:12:34 07:12:14 03:08:46 12.90
720 357 PELLEGRINO GIUSEPPE M M2 128 MTB FRANCIACORTA ITA 07:12:49 07:12:19 03:09:01 12.89
CAPRIOLO
721 403 NAY NADIA F EWS-W1 10 SUI 07:13:00 07:12:40 03:09:12 12.89
722 83 VESPRINI GRAZIANO M M5 93 G.C. CAPODARCO-COMUNITA' ITA 07:13:08 07:12:51 03:09:20 12.88
723 1299 PROMUTICO COSTANTINO M M4 131 ASD TONI BIKE ITA 07:13:47 07:13:07 03:09:59 12.86
724 508 FIORE ALESSANDRO M M3 131 TEAM EUROBIKE ITA 07:13:50 07:13:29 03:10:02 12.86
725 1486 PASQUARELLI MARIO M M4 132 ASD GS AVIS GUALDO TADINO ITA 07:13:56 07:12:52 03:10:08 12.86
726 1254 CAVARIANI HERMAN M M1 63 MTB PARRE ITA 07:13:57 07:12:11 03:10:09 12.86
727 406 RIZZARDI RINO M M3 132 BIKE TUENNO FONDRIEST ITA 07:14:03 07:13:33 03:10:15 12.86
728 640 TINTI MASSIMO M M3 133 ITA 07:14:07 07:13:21 03:10:18 12.85
729 863 ZONGA STEFANO M M6 44 TEAM GALIARDI ASD ITA 07:14:08 07:13:50 03:10:20 12.85
730 1345 MALAVASI LUCA M M1 64 LUCKY BIKE [Link] ITA 07:14:24 07:13:39 03:10:36 12.85
731 1346 PIERICH DAVIDE M M3 134 LUCKY BIKE [Link] ITA 07:14:24 07:13:40 03:10:36 12.85
732 1185 VALENTINI LUCA M M3 135 U.S. CHIAVENNESE ITA 07:14:27 07:12:23 03:10:38 12.84
733 1497 BIAGINI ANDREA M ELMT 71 ITA 07:14:37 07:13:51 03:10:48 12.84
734 1179 LENCI MARCO M M3 136 ASD Pedale Stracco Fabriano ITA 07:14:38 07:12:35 03:10:50 12.84
735 828 MATTIOLI GIUSEPPE M M4 133 WILD TEAM LANGHIRANO ASD ITA 07:15:56 07:15:52 03:12:08 12.80
736 1068 CESANA EDOARDO M M5 94 SIRONE BIKE ASD ITA 07:16:03 07:14:29 03:12:15 12.80
737 1070 LONGHI MASSIMILIANO M M3 137 SIRONE BIKE ASD ITA 07:16:03 07:14:31 03:12:15 12.80
738 1139 PICCARDI FABIO M M3 138 SPRINT BIKE LUMEZZANE ITA 07:16:22 07:14:41 03:12:34 12.79
A.S.D.
739 333 CANNAS CHRISTIAN M M4 134 BIKE TEAM MANDELLO ASD ITA 07:16:23 07:15:43 03:12:35 12.79
Servizio a cura di OTC SRL 29/07/2017 18:40 sigle giudici
[Link] - Classifiche e risultati su ENDU - [Link] Pagina 13 di 22
Classifica generale
[Link] FCI : 127491 Tipo di gara: (XCM N) Marathon
Organizzazione: 02K3574 ALTA VALTELLINA BIKE asd PROVVISORIA
pos pett. atleta sex cat. [Link] team naz race time real time gap medi
a
740 6F GOGOLEVA ELENA F DE 6 GBU SHVSM N2 SAMARA RUS 07:16:32 07:16:24 03:12:43 12.78
741 1005 MARTINELLI SIMONA F W2 4 SPORTING CLUB LIVIGNO ITA 07:17:09 07:16:37 03:13:20 12.76
742 1373 VOLPATO ANDREA M M2 129 TEAM GRANFONDO LIOTTO ITA 07:17:34 07:15:41 03:13:46 12.75
743 693 MAZZA FEDERICO M M5 95 GSO LAUDENSE ITA 07:17:38 07:17:00 03:13:49 12.75
744 331 MAMBELLI MATTIA M M3 139 TRIAL BIKE ITA 07:17:56 07:17:29 03:14:08 12.74
745 645 FONTANA TONI M M4 135 ASD TONI BIKE ITA 07:18:12 07:17:43 03:14:23 12.73
746 783 COLOMBO PAOLO M M4 136 MOTO CLUB TEAM CUBO ITA 07:18:30 07:17:35 03:14:41 12.73
A.S.D.
747 784 CRIPPA RAFFAELE M M4 137 FOCUS XC ITALY TEAM ITA 07:18:30 07:17:35 03:14:41 12.73
748 1086 ANCARANI DANIELE M ELMT 72 TRIAL BIKE ITA 07:18:36 07:18:07 03:14:47 12.72
749 415 BOSELLI GIANLUCA M M2 130 BELTRAMI TSA GRAVITY ITA 07:18:40 07:18:26 03:14:52 12.72
GAMES
750 886 AUGUSTI ANGELO M M5 96 MASTER TEAM A.S.D. ITA 07:18:45 07:18:27 03:14:56 12.72
751 1331 PAVANEL DIEGO M M1 65 ASD MTB A CASA VECIA ITA 07:19:02 07:18:02 03:15:13 12.71
752 328 PAGLIALUNGA M M3 140 GFRACING ITA 07:19:05 07:18:31 03:15:16 12.71
ALESSANDRO
753 1122 TERESI PIERPAOLO M M2 131 ASD PANORMUS BIKE TEAM ITA 07:19:20 07:18:29 03:15:32 12.70
754 868 BUONAVITA FEDERICO M M1 66 GS POPPI ASD ITA 07:19:33 07:19:25 03:15:45 12.69
755 876 VALERI MAURO M M3 141 FUNTOS BIKE - NRC ITA 07:19:45 07:19:35 03:15:56 12.69
756 1300 RINALDI LIVIANO M M3 142 ASD TONI BIKE ITA 07:19:53 07:19:14 03:16:05 12.69
757 436 MAZZANTI MARCO M M4 138 ASD GEMME BIKE ITA 07:19:56 07:18:53 03:16:08 12.68
758 720 BRESSAN ROBERTO M M4 139 ITA 07:19:56 07:18:53 03:16:08 12.68
759 1154 CHIAL GIUSEPPE M ELMT 73 CHIALA' CYCLING TEAM ITA 07:20:28 07:18:59 03:16:40 12.67
LOCOROTONDO
760 236 MALAVOLTA SIMONE M M2 132 U.C. PORTO SANT'ELPIDIO ITA 07:20:37 07:20:04 03:16:49 12.66
MONTE URANO
761 1552 ROVNAN VRATKO M M3 143 SUI 07:20:39 07:19:48 03:16:51 12.66
762 526 GIULIANI RICCARDO M M3 144 PROVIS BIKE ITA 07:20:40 07:20:21 03:16:52 12.66
763 1193 LINI GABRIELE M M5 97 FREEDOM BIKE A.S.D. ITA 07:20:41 07:18:40 03:16:53 12.66
764 1177 BARTOLINI MAURO M M6 45 MTB CASENTINO ITA 07:20:46 07:20:02 03:16:57 12.66
765 1355 BEDENDO EUGENIO M M2 133 A.S.D. CAPODIVENTO MTB ITA 07:20:47 07:19:59 03:16:58 12.66
ARTEGNA
766 722 ZONGHETTI GIUSEPPE M M5 98 FREEDOM BIKE A.S.D. ITA 07:20:49 07:20:03 03:17:01 12.66
767 1130 BELLOMO DANIELE M M5 99 TEAM BIKE ROCKS ITA 07:21:14 07:19:23 03:17:26 12.65
768 860 DELLA VEDOVA GIUSEPPE M M5 100 GEMINI TEAM ITA 07:21:16 07:20:58 03:17:27 12.65
769 687 VIRGILI LUIGI M M4 140 ASD TEAM GIULIODORI RENZO ITA 07:21:30 07:20:53 03:17:42 12.64
BIKE CLUB CAFE'
770 921 GIACOMAZZI MATTEO M M3 145 DNA BIKE TEAM A.S.D. ITA 07:21:40 07:21:28 03:17:52 12.63
771 1288 BAIARDI DARIO M M1 67 A.S.D. VELO CLUB RODIGO ITA 07:21:49 07:19:49 03:18:00 12.63
772 1290 MARCHINI IVAN M M3 146 A.S.D. VELO CLUB RODIGO ITA 07:21:49 07:19:48 03:18:00 12.63
773 683 MARCHEGIANI MARCO M M5 101 ASCD VALLE DEL CONCA ITA 07:23:06 07:22:20 03:19:17 12.59
774 1256 CUTTAIA GIUSEPPE M M5 102 ASD PANORMUS BIKE TEAM ITA 07:23:08 07:22:19 03:19:20 12.59
775 1282 AROSIO MARCO M M7+ 12 BICI CLUB 2000 ITA 07:23:34 07:22:06 03:19:46 12.58
776 1301 BONIOTTI MAURO M M7+ 13 FTC EQUIPE A.S.D. ITA 07:23:41 07:22:16 03:19:53 12.58
777 1464 DONEDA SERGIO M M6 46 BOTTANUCO MTB A.S.D. ITA 07:23:47 07:22:16 03:19:59 12.57
778 1366 AGOSTINI ANDREA M M2 134 ITALIA NUOVA BORGO ITA 07:23:48 07:23:01 03:19:59 12.57
PANIGALE
779 248 MAZZOTTI FILIPPO M M1 68 TEAM ROWA ITA 07:24:39 07:24:13 03:20:50 12.55
780 1455 LORI MARCO M M3 147 TEAM LA VERDE A.S.D. ITA 07:24:39 07:22:35 03:20:50 12.55
781 483 FORTI FABIO M M3 148 FREE BIKE CESENA ITA 07:24:45 07:24:39 03:20:57 12.55
782 1436 RIGHI ALESSANDRO M M4 141 TEAM CIUKE' ASD ITA 07:25:02 07:23:00 03:21:13 12.54
783 1405 ALLIATA MARCO M M5 103 SUI 07:25:07 07:24:05 03:21:19 12.54
784 978 CASTOLDI ANTONIO M M4 142 EASY RIDE ITA 07:25:17 07:25:01 03:21:29 12.53
785 1217 STUANI DAVIDE M M2 135 I VELOCIPEDI ITA 07:25:17 07:23:37 03:21:29 12.53
786 1088 VICCHI CORRADO M M4 143 TRIAL BIKE ITA 07:25:35 07:25:03 03:21:47 12.52
787 651 CARBONETTI GIOVANNI M M2 136 SUI 07:25:51 07:24:57 03:22:03 12.52
788 1152 PANZERI LORENZO M M3 149 CAMA GROUP POLISPORTIVA ITA 07:26:05 07:25:15 03:22:17 12.51
789 1153 INVERNIZZI MAURO M M5 104 CAMA GROUP POLISPORTIVA ITA 07:26:05 07:25:14 03:22:17 12.51
790 644 ZEPPIERI ALESSANDRO M M5 105 ASD TONI BIKE ITA 07:26:47 07:26:18 03:22:58 12.49
791 643 MAURI GIANANDREA M M4 144 SIRONE BIKE ASD ITA 07:26:48 07:26:13 03:22:59 12.49
792 836 GHILARDI MICHELE M M2 137 CICLISTICA PRADALUNGHESE ITA 07:26:58 07:26:31 03:23:09 12.48
793 928 BICCARI MICHAEL M M1 69 CICLISTICA PRADALUNGHESE ITA 07:26:58 07:26:32 03:23:10 12.48
794 1040 PIROMALLI ANDREA M M3 150 ASD ADRENALINA TEAM ITA 07:27:01 07:26:35 03:23:13 12.48
795 1504 LORENZI ANDREA M M3 151 SIRONE BIKE ASD ITA 07:27:10 07:26:17 03:23:22 12.48
796 1339 MICHELI MAURO M M2 138 A.S.D. GRUPPO CICLISTICO ITA 07:27:14 07:26:50 03:23:26 12.48
MATELICA
797 502 ISIDORI ALESSANDRO M M3 152 TEAM SPACCO A.S.D. ITA 07:27:29 07:27:15 03:23:41 12.47
Servizio a cura di OTC SRL 29/07/2017 18:40 sigle giudici
[Link] - Classifiche e risultati su ENDU - [Link] Pagina 14 di 22
Classifica generale
[Link] FCI : 127491 Tipo di gara: (XCM N) Marathon
Organizzazione: 02K3574 ALTA VALTELLINA BIKE asd PROVVISORIA
pos pett. atleta sex cat. [Link] team naz race time real time gap medi
a
798 401 QUERZOLA FRANCESCA F EWS-W1 11 A.S.D. IMOLA BIKE ITA 07:28:18 07:28:08 03:24:29 12.45
799 255 BONCORE GIUSEPPE M M1 70 MTB CLUB SPOLETO ITA 07:29:33 07:28:48 03:25:45 12.41
800 969 TESTA GIUSEPPE M M6 47 CASTELTROSINO SUPERBIKE ITA 07:29:56 07:29:27 03:26:07 12.40
801 1218 SILEONI MIRKO M M3 153 BHS TEAM A.S.D. ITA 07:29:59 07:28:14 03:26:11 12.40
802 620 CIAVATTA FIORENZO M M3 154 SAN MARINO MTB TEAM SMR 07:31:17 07:30:21 03:27:29 12.36
803 1087 LUSINI SILVANO M M6 48 TRIAL BIKE ITA 07:31:53 07:31:21 03:28:05 12.35
804 1458 CATTANEO SILVANO M M4 145 2R BIKE STORE - A.S.D. ITA 07:32:06 07:30:19 03:28:18 12.34
805 1372 BRESCIANI MANUEL M M2 139 XC TEAM TRIESTE - ASD ITA 07:32:22 07:31:08 03:28:34 12.34
ADRIANO
806 271 ZUCCHETTI SIMONE M M3 155 US BORMIESE ITA 07:32:28 07:31:45 03:28:40 12.33
807 1446 ROSSI RICCARDO M M5 106 A.S.D. BIKER IN LIBERTA' ITA 07:32:46 07:31:58 03:28:58 12.32
808 819 CARINELLI MICHELE M M3 156 TRIONO RACING MEDICAL ITA 07:33:17 07:32:14 03:29:29 12.31
FREM
809 909 BARBERINI STEFANO M M3 157 MEDINOX ITA 07:33:22 07:33:08 03:29:33 12.31
810 536 RIGHI CHRISTIAN M M4 146 VAI FERRO BIKE ASD ITA 07:34:07 07:33:39 03:30:19 12.29
811 1066 PASQUALINI DANIELE M M2 140 A.S.D. CRAZY BIKE ITA 07:34:14 07:33:05 03:30:26 12.28
812 684 VELLUTINI ALESSANDRO M M2 141 TOSCANA TRACKS - CINGHIALI ITA 07:34:50 07:34:13 03:31:01 12.27
VERSILIA
813 617 MORDENTI CRISTIANO M M3 158 ADVENTURE TEAM ITA 07:34:57 07:34:07 03:31:08 12.27
814 1490 RIGGIO GIUSEPPE M M2 142 ASD DEVILBIKE TEAM ITA 07:35:12 07:33:59 03:31:24 12.26
815 434 DE FLORIO ROBERTO M M2 143 U.C. PORTO SANT'ELPIDIO ITA 07:35:37 07:35:20 03:31:49 12.25
MONTE URANO
816 1511 CAVALLI MASSIMO M M6 49 SUI 07:35:46 07:33:35 03:31:57 12.24
817 307 VALSECCHI CESARE M M4 147 SIRONE BIKE ASD ITA 07:36:30 07:35:56 03:32:41 12.22
818 178 RINALDI ALESSANDRO M M1 71 TEAM LODA MILLENNIUM ITA 07:36:30 07:34:22 03:32:42 12.22
819 772 MATTIOLI PAOLO M M4 148 ASD SESSANTALLORA ITA 07:36:32 07:35:32 03:32:44 12.22
820 509 MASTRORILLO SABINO M M5 107 A.S.D. QUARATBIKE ITA 07:36:48 07:36:28 03:33:00 12.22
821 1080 FERRARI ALEX M M1 72 NEW MOTOR BIKE A.S.D. ITA 07:37:05 07:35:40 03:33:17 12.21
822 235 SCUDELLARI FABIO M M2 144 ASD [Link] RIZZOTTO COOP ITA 07:37:36 07:37:10 03:33:47 12.19
LOMB.
823 379 ERRANI ANDREA RICCARDO M M4 149 KENTO RACING TEAM ITA 07:37:38 07:37:00 03:33:49 12.19
824 1293 FUSELLA SIMONE M M4 150 BIKE INNOVATION SQUADRA ITA 07:37:57 07:37:06 03:34:09 12.18
CORSE A.S.D.
825 570 SIGNORI MARINO M M6 50 FREE BIKE NEMBRO ITA 07:38:14 07:38:00 03:34:25 12.18
826 1291 OLIVETO ANTONIO M M2 145 ASD GHIANDA TEAM ITA 07:38:17 07:36:42 03:34:29 12.18
827 656 GIOVANNINI ROCCO M M5 108 NEW MOTOR BIKE A.S.D. ITA 07:38:44 07:38:06 03:34:55 12.16
828 1295 SANNA GIUSEPPE M M3 159 SCO CAVENAGO A.S.D. ITA 07:38:49 07:37:26 03:35:01 12.16
829 1034 CAMOSSI MASSIMO M M6 51 SPRINT BIKE LUMEZZANE ITA 07:39:05 07:37:24 03:35:16 12.15
830 671 VILLANI LUCA M M4 151 MTB RUOTE LIBERE ITA 07:39:13 07:38:11 03:35:24 12.15
FERENTINO
831 788 MARRA SIMONE M M3 160 TEAM FOCUS FANELLI BIKE ITA 07:39:18 07:38:17 03:35:30 12.15
832 787 CRECCHI OMAR M M2 146 TEAM FOCUS FANELLI BIKE ITA 07:39:18 07:38:16 03:35:30 12.15
833 457 SASIADEK THOMAS M M4 152 SPORT TIME S.S.D. A R.L. ITA 07:39:21 07:38:59 03:35:32 12.15
834 504 SANTOLINI ERMES M M3 161 TEAM SPACCO A.S.D. ITA 07:39:25 07:39:14 03:35:36 12.15
835 1033 FERRARI ROBERTO M M6 52 SPRINT BIKE LUMEZZANE ITA 07:39:35 07:37:54 03:35:47 12.14
836 725 GENNARI DARIO M M4 153 TRIONO RACING MEDICAL ITA 07:40:21 07:39:41 03:36:33 12.12
FREM
837 1076 MARZI FEDERICO M ELMT 74 GS POPPI ASD ITA 07:40:34 07:39:53 03:36:45 12.12
838 1074 ROSELLI CLAUDIO M M1 73 GS POPPI ASD ITA 07:40:34 07:39:53 03:36:45 12.12
839 1223 NORCINI PAOLO M M2 147 GS POPPI ASD ITA 07:40:34 07:39:53 03:36:46 12.12
840 1478 ARPINI SILVAN M M2 148 LEGNANESE ITA 07:40:35 07:38:41 03:36:47 12.12
841 223 BERNASCONI CAMILLA F W2 5 FUNTOS BIKE - NRC ITA 07:41:09 07:40:40 03:37:20 12.10
842 551 CORTIANA LUCA M M5 109 G.S. SCHIO BIKE A.S.D. ITA 07:41:27 07:41:03 03:37:39 12.09
843 764 BERTONCELLI ALEX M M2 149 ASD SESSANTALLORA ITA 07:41:29 07:40:37 03:37:41 12.09
844 1212 CORRADETTI DOMENICO M M5 110 ASD I TURBOLENTI ITA 07:41:41 07:40:07 03:37:52 12.09
845 1387 VAGNONI GIOVANNI M M1 74 RSV Aachen ITA 07:42:36 07:41:22 03:38:48 12.06
846 840 SONATORE FELICE M M4 154 ASD HELLO BIKE SHOP TRANI ITA 07:42:56 07:40:59 03:39:08 12.05
847 1042 DI PERNA DOMENICO M M3 162 ASD HELLO BIKE SHOP TRANI ITA 07:42:56 07:41:02 03:39:08 12.05
848 1371 FOPPOLI ROBERTO M M2 150 ITA 07:42:57 07:40:49 03:39:09 12.05
849 1233 ARMANNI DAVIDE M M1 75 MTB PARRE ITA 07:43:16 07:41:34 03:39:28 12.05
850 1276 GRIGOLI SERGIO M M5 111 ASD PANORMUS BIKE TEAM ITA 07:43:28 07:42:38 03:39:39 12.04
851 1022 FIORI DAVID M M2 151 POL. CASTELLO LARI 1989 ITA 07:43:40 07:42:22 03:39:52 12.03
852 1024 TREMOLANTI GIACOMO M ELMT 75 POL. CASTELLO LARI 1989 ITA 07:43:41 07:42:21 03:39:52 12.03
853 1026 LOBACCARO RICCARDO M M1 76 POL. CASTELLO LARI 1989 ITA 07:43:41 07:42:22 03:39:52 12.03
854 320 DIARI ANDREA M M3 163 POL. CASTELLO LARI 1989 ITA 07:43:41 07:42:23 03:39:53 12.03
855 1277 PUSATERI ROSARIO M M4 155 ASD PANORMUS BIKE TEAM ITA 07:43:41 07:42:52 03:39:53 12.03
856 458 ZANUCCOLI ALESSANDRO M M3 164 SPORT TIME S.S.D. A R.L. ITA 07:43:53 07:43:31 03:40:05 12.03
Servizio a cura di OTC SRL 29/07/2017 18:40 sigle giudici
[Link] - Classifiche e risultati su ENDU - [Link] Pagina 15 di 22
Classifica generale
[Link] FCI : 127491 Tipo di gara: (XCM N) Marathon
Organizzazione: 02K3574 ALTA VALTELLINA BIKE asd PROVVISORIA
pos pett. atleta sex cat. [Link] team naz race time real time gap medi
a
857 773 OLIVA MARCELLO M M3 165 ASD SESSANTALLORA ITA 07:43:57 07:43:05 03:40:08 12.03
858 873 LUCIANI LORENZO M M3 166 MORELLO'S BROTHERS ASD ITA 07:44:05 07:43:43 03:40:16 12.02
859 874 TAZZI LORENZO M M3 167 MORELLO'S BROTHERS ASD ITA 07:44:05 07:43:44 03:40:16 12.02
860 1057 FATTORI MARCO M M3 168 MORELLO'S BROTHERS ASD ITA 07:44:05 07:42:08 03:40:17 12.02
861 854 NADALINI ALBERTO M M1 77 ITA 07:44:05 07:43:52 03:40:17 12.02
862 1060 BORRANI MASSIMO M M3 169 MORELLO'S BROTHERS ASD ITA 07:44:05 07:42:10 03:40:17 12.02
863 666 GIANNOTTI FRANCO M M4 156 TEAM COSMOS SMR 07:44:10 07:43:37 03:40:21 12.02
864 1192 PARENTELLI NICOLA M ELMT 76 G.S BULGARNO' BIKE 2008 ITA 07:44:24 07:42:55 03:40:35 12.02
ASD
865 1253 ORTOLANI FABIO M M3 170 TEAM MONARCA TREVI A.S.D. ITA 07:44:42 07:42:31 03:40:54 12.01
866 1329 PANDOLFO MARINO M M6 53 [Link] U.S.C. ITA 07:45:52 07:44:30 03:42:03 11.98
CALCROCI
867 865 MAZZOLANI ROBERTO M M5 112 BIKE INNOVATION SQUADRA ITA 07:46:28 07:46:07 03:42:39 11.96
CORSE A.S.D.
868 810 CECCARONI MATTEO M M3 171 GS CICLI MATTEONI - BIANCHI ITA 07:46:31 07:46:06 03:42:42 11.96
ASD
869 811 CAMPIDELLI SAURO M M5 113 GS CICLI MATTEONI - BIANCHI ITA 07:46:31 07:46:07 03:42:42 11.96
ASD
870 1280 BENINI STEFANO M M2 152 MTB FRANCIACORTA ITA 07:46:38 07:45:12 03:42:49 11.96
CAPRIOLO
871 986 GUANELLA KRISTIAN M M1 78 ITA 07:46:54 07:46:37 03:43:06 11.95
872 972 MARTUCCI WALTER M M5 114 ALL BLACKS BIKE ITA 07:46:55 07:46:35 03:43:07 11.95
873 1031 BUOMPADRE MARCO M M3 172 MTB CLUB SPOLETO ITA 07:47:09 07:44:56 03:43:20 11.95
874 954 CECERA GIANFRANCESCO M M4 157 MTB CLUB SPOLETO ITA 07:47:09 07:44:59 03:43:21 11.94
875 830 SILVESTRI DANIELE M M2 153 MTB CLUB SPOLETO ITA 07:47:09 07:44:57 03:43:21 11.94
876 755 ANDREUCCI GIANNI M M4 158 GS POPPI ASD ITA 07:47:28 07:46:48 03:43:39 11.94
877 910 CARAFA DARIO M M2 154 ALL BLACKS BIKE ITA 07:47:33 07:47:12 03:43:44 11.93
878 430 GUZZI GIANLUIGI M M5 115 ITA 07:47:37 07:47:10 03:43:48 11.93
879 1161 NAPOLITANO NICOLA MARIA M M2 155 ASD FIDELIS CYCLING TEAM ITA 07:48:03 07:46:56 03:44:15 11.92
880 1308 BERTOLANI MIRCO M M5 116 A.S.D. SPORTINSIEME ITA 07:48:57 07:47:07 03:45:09 11.90
881 1305 ADDUCI COSIMO M M4 159 A.S.D. SPORTINSIEME ITA 07:48:58 07:47:07 03:45:09 11.90
882 1379 CASTELLI DAVIDE M M1 79 ASD CICLI PIAZZALUNGA ITA 07:49:11 07:47:49 03:45:23 11.89
883 625 CUSINI SEVERINO M M3 173 US BORMIESE ITA 07:49:29 07:48:40 03:45:41 11.89
884 963 LACARBONARA GIANPAOLO M ELMT 77 TEAM BIKE MARTINA FRANCA ITA 07:49:31 07:49:07 03:45:42 11.88
885 554 SPINETTA MAURIZIO M M5 117 GS FLORES FERRERA ITA 07:49:53 07:49:25 03:46:04 11.88
886 822 DAL LAGO GIORGIO M M6 54 PUNTOBICI TEAM BIKE ITA 07:50:04 07:49:42 03:46:16 11.87
887 1169 MORA ALEX M M1 80 VIRTUS UP ITA 07:50:04 07:48:26 03:46:16 11.87
888 923 BUSCH TINO M M3 174 GER 07:50:07 07:49:53 03:46:19 11.87
889 913 QUIRCI SERGIO M M4 160 GEMINI TEAM ITA 07:50:12 07:50:03 03:46:24 11.87
890 456 CAPELLI LUCA M M3 175 SPORT TIME S.S.D. A R.L. ITA 07:50:38 07:50:15 03:46:49 11.86
891 679 PAESANI PAOLO M M5 118 TEAM ROWA ITA 07:52:05 07:51:20 03:48:17 11.82
892 918 MARIANI LORENZO M M3 176 ASD COTEKINO OFF ROAD ITA 07:52:09 07:51:47 03:48:20 11.82
893 919 RAVAIOLI LORENZO M M5 119 ASD COTEKINO OFF ROAD ITA 07:52:09 07:51:47 03:48:20 11.82
894 1171 MEDEGHINI ERNESTO M M5 120 GS CROCE VERDE ORZINUOVI ITA 07:52:52 07:51:57 03:49:04 11.80
895 1174 ROSSINI EMANUELE M M6 55 GS CROCE VERDE ORZINUOVI ITA 07:52:52 07:51:50 03:49:04 11.80
896 1489 CRAPIS JIMMY M M2 156 LORIS BIKE ITA 07:52:54 07:51:16 03:49:06 11.80
897 1162 MAZZONE FRANCESCO M M5 121 ASD ALTA MURGIA MTB ITA 07:53:12 07:51:18 03:49:23 11.79
898 1043 ROCCHITELLI DOMENICO M M4 161 ASD HELLO BIKE SHOP TRANI ITA 07:53:24 07:51:26 03:49:36 11.79
899 1374 COLASUONNO VINCENZO M M4 162 ASD SAMBI TEAM ITA 07:53:29 07:53:03 03:49:41 11.78
900 766 COSTOLI MASSIMO M M4 163 ASD SESSANTALLORA ITA 07:53:33 07:52:33 03:49:44 11.78
901 1393 MARCATELLI ALESSANDRO M M2 157 INDIVIDUALE ITA 07:54:09 07:52:55 03:50:21 11.77
902 646 SELLARI ROBERTO M M5 122 ASD TONI BIKE ITA 07:54:25 07:53:56 03:50:37 11.76
903 1038 RUBBINO SEBASTIANO M M6 56 I VELOCIPEDI ITA 07:55:40 07:53:59 03:51:51 11.73
904 1094 VETRICINI GIANLUCA M M3 177 TRIAL BIKE ITA 07:55:41 07:55:16 03:51:52 11.73
905 1340 GROSSI DONATO M M5 123 FREE ! MTB ITA 07:56:12 07:54:13 03:52:24 11.72
906 1309 TRIPOLINO AUGUSTO M M2 158 NUOVA CORTI RACING TEAM ITA 07:56:35 07:55:07 03:52:47 11.71
907 930 GALANTI STEFANO M M2 159 NUOVA CORTI RACING TEAM ITA 07:56:36 07:55:07 03:52:47 11.71
908 1013 MIGLIORI MIRCO M M2 160 LA BOTTEGA CASINALBO ITA 07:56:36 07:55:06 03:52:47 11.71
909 1445 SCHENETTI MANUEL M M2 161 ATLETICA MDS ITA 07:56:36 07:55:07 03:52:47 11.71
PANARIAGROUP ASD
910 492 MARIOTTI AUGUSTO M M6 57 TEAM CINGHIALI MANNARI ITA 07:56:47 07:56:31 03:52:58 11.70
911 1134 BRUNATI GIUSEPPE M M5 124 ASD CICLI PRIORI ITA 07:57:00 07:56:09 03:53:12 11.70
912 956 MANOCCHI DANILO M M6 58 ASD BIKE TEAM MONTI ITA 07:57:15 07:56:48 03:53:26 11.69
AZZURRI
913 804 FRASCARELLI CINZIA F W2 6 ASD BIKE TEAM MONTI ITA 07:57:15 07:56:49 03:53:26 11.69
AZZURRI
914 621 CIAVATTA DAVIDE M M3 178 SAN MARINO MTB TEAM SMR 07:57:15 07:56:42 03:53:27 11.69
Servizio a cura di OTC SRL 29/07/2017 18:40 sigle giudici
[Link] - Classifiche e risultati su ENDU - [Link] Pagina 16 di 22
Classifica generale
[Link] FCI : 127491 Tipo di gara: (XCM N) Marathon
Organizzazione: 02K3574 ALTA VALTELLINA BIKE asd PROVVISORIA
pos pett. atleta sex cat. [Link] team naz race time real time gap medi
a
915 1131 VOCINO MARIO M M5 125 ITA 07:57:32 07:56:25 03:53:44 11.69
916 812 BRUSORI MICHELE M M2 162 GS CICLI MATTEONI - BIANCHI ITA 07:57:53 07:57:30 03:54:05 11.68
ASD
917 1327 FIAMMENGHI FLAMIGNI M M4 164 TARTANA BIKE MONDRAKER ITA 07:57:53 07:56:17 03:54:05 11.68
ALBERTO
918 809 SAMMARITANI MAURO M M2 163 GS CICLI MATTEONI - BIANCHI SMR 07:57:54 07:57:31 03:54:05 11.68
ASD
919 694 ALTAMURA ENZO M M4 165 EMISSION ZERO ITA 07:58:22 07:57:36 03:54:34 11.66
920 1273 BONETTO FABIANO M M4 166 MTB CLUB GAERNE ITA 07:58:37 07:57:15 03:54:49 11.66
921 1271 GARBIN STEFANO M M3 179 MTB CLUB GAERNE ITA 07:58:37 07:57:15 03:54:49 11.66
922 672 MARRA ANGELO M M3 180 MTB RUOTE LIBERE ITA 07:58:48 07:57:42 03:55:00 11.65
FERENTINO
923 1501 NACCARELLA FABIO M M2 164 BICITIME RACING TEAM A.S.D. ITA 07:59:05 07:57:53 03:55:16 11.65
924 627 LUSETTI GIANLUCA M M4 167 TEAM SCULAZZO ITALIA ASD ITA 07:59:18 07:58:21 03:55:30 11.64
925 1517 GIORGETTI ADELIO M M4 168 JU GREEN A.S.D. GORLA ITA 07:59:25 07:57:20 03:55:37 11.64
MINORE
926 518 LORONI DANIELE M M4 169 ASD Pedale Stracco Fabriano ITA 07:59:52 07:59:25 03:56:04 11.63
927 636 GIORGI AURELIANO M M4 170 AVIS BIKE CINGOLI ITA 07:59:57 07:59:19 03:56:09 11.63
928 635 SALVUCCI ANTONIO M M4 171 AVIS BIKE CINGOLI ITA 07:59:57 07:59:20 03:56:09 11.63
929 251 SCIABORDI GRAZIANO M M3 181 MTB CLUB SPOLETO ITA 08:00:35 07:59:49 03:56:47 11.61
930 111 PIMPOLARI MAURO M M4 172 TRIONO RACING MEDICAL ITA 08:00:36 08:00:15 03:56:47 11.61
FREM
931 1028 LUCCINI WALTER M M7+ 14 BICIBIKE RACING TEAM ITA 08:01:06 07:59:45 03:57:18 11.60
932 1030 MANZI ERMINIO M M6 59 ASD UGGIATESE BICI BIKE 93 ITA 08:01:07 07:59:45 03:57:18 11.60
933 1321 BRANDOLI RICCARDO M M4 173 UISP COMITATO [Link] ITA 08:01:47 08:00:10 03:57:59 11.58
MODENA
934 1349 WICKI JACQUES M M5 126 SUI 08:02:12 08:00:47 03:58:23 11.57
935 1413 GRASSI GIOVANNI M M5 127 BRONTOLOBIKE ASD ITA 08:02:21 08:00:57 03:58:33 11.57
936 469 TONINI GIANLUCA M M4 174 A.S.D. MBM (MOBILITY BIKE ITA 08:02:56 08:02:44 03:59:08 11.55
MOTION)
937 827 ESPOSITO JURI M M4 175 KTM - PROTEK - DAMA ITA 08:03:01 08:02:42 03:59:12 11.55
938 1537 MUSSNER ARNO M M1 81 ITA 08:03:34 08:01:18 03:59:45 11.54
939 1317 ARIZZI CLAUDIO M M1 82 [Link] BIKE ITA 08:03:45 08:02:08 03:59:57 11.53
NICOLOSI
940 1235 PULCINI ROBERTO M M1 83 MTB PARRE ITA 08:03:51 08:02:05 04:00:03 11.53
941 628 PADUANO ONOFRIO M M3 182 ASD BIKE BROTHERS ITA 08:03:52 08:03:15 04:00:03 11.53
942 1136 COMPAGNONI FABIO M M4 176 ASD CICLI PRIORI ITA 08:03:53 08:02:59 04:00:05 11.53
943 1507 ROVERE PAOLO M M2 165 ASD SKORPIONI RACING TEAM ITA 08:03:59 08:01:47 04:00:10 11.53
944 1330 GIUSTI ANDREA M M2 166 TEAM FOCUS FANELLI BIKE ITA 08:04:01 08:02:42 04:00:13 11.53
945 1007 BERTULETTI CRISTINA F W2 7 FUNTOS BIKE - NRC ITA 08:04:03 08:01:57 04:00:14 11.53
946 1123 COCCHI NICOLA M M4 177 MORELLO'S BROTHERS ASD ITA 08:04:20 08:02:26 04:00:32 11.52
947 1063 PUCCIOTTI LUCA M M3 183 MORELLO'S BROTHERS ASD ITA 08:04:21 08:02:23 04:00:33 11.52
948 575 AMPALLA ROBERTO M M4 178 TEAM SABBIONERE ITA 08:04:24 08:03:58 04:00:36 11.52
949 611 MALONI NAZZARENO M M2 167 MONTI GEMELLI BIKE ITA 08:04:34 08:03:41 04:00:46 11.52
950 1428 BOLDINI MAURO DAVIDE M M1 84 GEMINI TEAM ITA 08:04:37 08:02:57 04:00:49 11.51
951 967 BONECCHI RICCARDO M M3 184 GEMINI TEAM ITA 08:04:38 08:04:21 04:00:49 11.51
952 718 GIUNTA GIANLUCA M ELMT 78 ASD CICLISMO MONTECCHIO ITA 08:04:46 08:04:15 04:00:57 11.51
953 1553 BOTOLINI NICOLA M M4 179 A. S. D. IRON BIKERS ITA 08:05:09 08:04:06 04:01:21 11.50
954 889 BENAGLIA MARCO M M3 185 OLTREPO RIDERS CLUB ITA 08:05:23 08:04:55 04:01:35 11.50
955 1274 MASIERO CLAUDIO M M6 60 MTB CLUB GAERNE ITA 08:05:31 08:04:09 04:01:42 11.49
956 1442 PIERPAOLI PAOLO M M4 180 A.S.D. AEROSKITEAM PRO ITA 08:06:19 08:05:06 04:02:31 11.47
CYCLING
957 426 CERETTI LUCA M M5 128 TEAM ISONZO AMATORI A.S.D. ITA 08:06:41 08:06:06 04:02:53 11.47
958 1294 GNERI PAOLO M M4 181 ASD GRAN CICLISMO ITA 08:06:52 08:06:12 04:03:04 11.46
959 1324 PISTOIA ANDREA M M6 61 SANFREDIANESE ITA 08:06:52 08:06:11 04:03:04 11.46
960 1082 VIVENZI EMILIANO M M3 186 ASD SPRINT BIKE LUMEZZANE ITA 08:07:50 08:07:00 04:04:02 11.44
961 1416 FAZZINI LUCA M M2 168 A.S. PREMANA ITA 08:08:14 08:06:47 04:04:25 11.43
962 602 BALDRIGHI MICHELA F W2 8 ASD VIGO BIKE ITA 08:08:14 08:07:20 04:04:26 11.43
963 564 PERITI GIORGIO M M6 62 GS TEAM PERINI BIKE ITA 08:08:14 08:07:21 04:04:26 11.43
964 603 MONDANI CARLA F W2 9 GS TEAM PERINI BIKE ITA 08:08:15 08:07:21 04:04:26 11.43
965 832 CUATTO FEDERICO M ELMT 79 SCOTT SUMIN ITA 08:08:16 08:08:01 04:04:27 11.43
966 1263 VECCHIATO MIRCO M M3 187 A.S.D. RICCI CICLI ITA 08:08:36 08:07:52 04:04:47 11.42
967 1186 FIBIOLI MAURO M M3 188 U.S. CHIAVENNESE ITA 08:08:44 08:06:33 04:04:55 11.42
968 931 GUSMEROLI LUCA STEFANO M M5 129 U.S. CHIAVENNESE ITA 08:08:44 08:08:05 04:04:56 11.42
969 566 GUIDA GIANNI M M4 182 ASD NEW DOWNHILL ITA 08:08:57 08:08:32 04:05:09 11.41
970 1514 ANNONI MAURO M M4 183 ASD RAT RIDE ALL TERRAIN ITA 08:09:23 08:07:16 04:05:35 11.40
971 1138 PALUMBO MARCO M M3 189 GEMINI TEAM ITA 08:09:24 08:07:44 04:05:36 11.40
972 1210 TRIVELLA SERGIO M M4 184 TEAM CYCLE CLASSIC ITA 08:09:29 08:08:43 04:05:40 11.40
Servizio a cura di OTC SRL 29/07/2017 18:40 sigle giudici
[Link] - Classifiche e risultati su ENDU - [Link] Pagina 17 di 22
Classifica generale
[Link] FCI : 127491 Tipo di gara: (XCM N) Marathon
Organizzazione: 02K3574 ALTA VALTELLINA BIKE asd PROVVISORIA
pos pett. atleta sex cat. [Link] team naz race time real time gap medi
a
973 1211 LIMONTA MAURO M M4 185 TEAM CYCLE CLASSIC ITA 08:09:29 08:08:43 04:05:40 11.40
974 748 BERTONCINI STEFANO M M5 130 RS BIKE ITA 08:10:03 08:09:10 04:06:15 11.39
975 553 CARRETTIERO PIERANGELO M M6 63 GS FLORES FERRERA ITA 08:10:16 08:09:46 04:06:27 11.38
976 695 GUERRA CLAUDIO M M4 186 ASD TEKNOBIKE ITA 08:10:16 08:09:30 04:06:28 11.38
977 1228 LABEMANO ALDO M M4 187 FTC EQUIPE A.S.D. ITA 08:10:25 08:08:59 04:06:36 11.38
978 453 BENCINI MARCO M M4 188 CAMA GROUP POLISPORTIVA ITA 08:10:36 08:10:11 04:06:48 11.37
979 724 RATTI GABRIELE M M3 190 CAMA GROUP POLISPORTIVA ITA 08:10:37 08:09:57 04:06:48 11.37
980 422 PEDRETTI LUCA M M2 169 CAMA GROUP POLISPORTIVA ITA 08:10:37 08:10:12 04:06:49 11.37
981 1376 FAGGIOLINI CRISTIAN M M3 191 TARTANA BIKE MONDRAKER ITA 08:10:37 08:08:58 04:06:49 11.37
982 1424 RIGHETTINI STEFANO M M4 189 GS ACTION BIKE ITA 08:11:35 08:09:53 04:07:46 11.35
983 626 ANTONIONI GIAN PIERO M M5 131 ITA 08:11:49 08:10:49 04:08:01 11.35
984 1270 DE BORTOLI MAURO M M5 132 MTB CLUB GAERNE ITA 08:12:08 08:10:46 04:08:19 11.34
985 824 MULATTIERI LUCIANO M M6 64 ASD KULAMULA MTB ITA 08:13:11 08:13:02 04:09:23 11.31
CREMONA
986 424 OLIVI ALESSIO M M5 133 VELO [Link] CINGOLANI ITA 08:13:12 08:12:35 04:09:24 11.31
A.S.D.
987 885 ZAMPETTI DAMIANO M ELMT 80 ASD Pedale Stracco Fabriano ITA 08:14:01 08:13:31 04:10:12 11.30
988 884 ZAMPETTI DANILO M M1 85 ASD Pedale Stracco Fabriano ITA 08:14:01 08:13:31 04:10:12 11.30
989 1241 PARO SIMONE M M4 190 BIKE CLUB 2000 ITALIANJET ITA 08:14:01 08:12:06 04:10:13 11.30
990 1369 GOBBETTO MIRCO M M4 191 LEONES TREVISO ITA 08:14:01 08:12:11 04:10:13 11.30
991 1498 LUCARELLI LORENZO M M5 134 FREEDOM BIKE A.S.D. ITA 08:14:02 08:11:57 04:10:13 11.30
992 1102 MOLINELLI ANDREA M M3 192 ITA 08:14:09 08:12:02 04:10:21 11.29
993 1247 BACCI GINO M M4 192 MTB CLUB SPOLETO ITA 08:14:50 08:13:01 04:11:01 11.28
994 1285 DI BATTISTA EMILIANO M M3 193 MTB CLUB SPOLETO ITA 08:14:50 08:13:02 04:11:01 11.28
995 461 BANDOLIERI SILVER M M2 170 TEAM NOB JOLLYWEAR ITA 08:15:27 08:15:10 04:11:38 11.26
996 747 SALVI STEFANO M M3 194 RS BIKE ITA 08:16:09 08:15:16 04:12:21 11.25
997 1415 CHIAPPA MASSIMO M M4 193 RS BIKE ITA 08:16:09 08:15:14 04:12:21 11.25
998 982 GIUSPINO FRANCESCO M M5 135 GEMINI TEAM ITA 08:16:51 08:16:38 04:13:02 11.23
999 1326 ANTOLINI CRISTIAN M M3 195 ARTUSIANA BIKE ITA 08:17:02 08:15:24 04:13:13 11.23
1000 1133 COPETA GIOVANNI M M4 194 G.C. PADERNESE ARCHETTI ITA 08:17:49 08:16:50 04:14:00 11.21
PITT.A.S.D.
1001 1172 MARTINELLI LORENZO M M6 65 GS CROCE VERDE ORZINUOVI ITA 08:17:49 08:16:50 04:14:00 11.21
1002 1342 LAURO MARCO M M5 136 ASD M.B.O. BIKE CLUB ITA 08:17:49 08:16:56 04:14:00 11.21
1003 1132 ROMANO ANGELO M M4 195 G.C. PADERNESE ARCHETTI ITA 08:17:49 08:16:50 04:14:00 11.21
PITT.A.S.D.
1004 1141 BANELLA PAOLO M M3 196 ASD GRIFO BIKE PERUGIA ITA 08:18:38 08:17:04 04:14:50 11.19
1005 661 DI TULLIO MARCO M M4 196 OSTERIA BIKE A.S.D ITA 08:18:49 08:18:22 04:15:01 11.19
1006 1461 MAURAMATI MAURIZIO M M5 137 ASD TEAM ALL4 CYCLING - ITA 08:18:49 08:16:54 04:15:01 11.19
BDC
1007 472 PARRI ROBERTO M M6 66 A.S.D. MBM (MOBILITY BIKE ITA 08:19:33 08:19:29 04:15:44 11.17
MOTION)
1008 681 AMERICANO MASSIMO M M6 67 ASD CASSINIS CYCLING TEAM ITA 08:19:50 08:18:56 04:16:02 11.16
1009 936 MILANI VITTORIO M M4 197 SUPERBIKE POZZETTO ITA 08:20:28 08:20:16 04:16:39 11.15
1010 1071 SALA DENIS M M3 197 CANOSSA MERIDA ITA 08:20:31 08:19:20 04:16:42 11.15
1011 491 BASSO GIACOMO M M1 86 MTB MILANO TRAIL BIKE ASD ITA 08:20:32 08:20:24 04:16:43 11.15
1012 946 FERRI DAVIDE M M4 198 NEW MOTOR BIKE ASD ITA 08:21:03 08:20:54 04:17:15 11.14
1013 1477 ARPINI DAVIDE M M4 199 LEGNANESE ITA 08:21:07 08:19:13 04:17:18 11.14
1014 1055 GUSSONI ADELMO M M3 198 A.S.D. GOODBIKE ITA 08:21:13 08:20:39 04:17:24 11.13
PONTREMOLI VALLI DI ZERI
1015 1318 CRISPINO ORAZIO M M2 171 [Link] BIKE ITA 08:21:50 08:20:11 04:18:01 11.12
NICOLOSI
1016 1319 RUSSO VINCENZO M M3 199 [Link] BIKE ITA 08:21:50 08:20:12 04:18:01 11.12
NICOLOSI
1017 1380 MARAGNO MAURO M M7+ 15 BPM MAX ITA 08:22:04 08:20:43 04:18:16 11.11
1018 471 PAGHI SIMONE M M4 200 A.S.D. MBM (MOBILITY BIKE ITA 08:22:38 08:22:33 04:18:50 11.10
MOTION)
1019 1244 BENERECETTI CORRADO M M5 138 NUOVA CICLISTICA PLACCI ITA 08:23:53 08:22:20 04:20:04 11.07
2013 A.P.D.
1020 927 CANEVARO MARCO M M2 172 TEAM SCULAZZO ITALIA ASD ITA 08:24:37 08:24:18 04:20:48 11.06
1021 1287 IARRUSSO VINCENZO M M4 201 A.S.D. VELO CLUB RODIGO ITA 08:24:43 08:22:47 04:20:55 11.06
1022 762 MARRA LUIGI M M3 200 MTB RUOTE LIBERE ITA 08:24:44 08:23:38 04:20:55 11.06
FERENTINO
1023 670 PACIOTTA PIETRO M M4 202 MTB RUOTE LIBERE ITA 08:24:44 08:23:39 04:20:55 11.06
FERENTINO
1024 363 MARABESE MASSIMO M M3 201 ITA 08:25:07 08:24:27 04:21:18 11.05
1025 642 BARATELLA FAUSTO M M4 203 VALLELVOBIKE ITA 08:25:13 08:24:25 04:21:25 11.04
1026 1120 LATUGA ANDREA M M4 204 A.S.D. LR BIKE TEAM ITA 08:25:42 08:24:31 04:21:53 11.03
1027 474 GIUSTARINI GIANFRANCO M M7+ 16 A.S.D. MBM (MOBILITY BIKE ITA 08:25:50 08:25:44 04:22:01 11.03
MOTION)
1028 895 ALESSANDRI ALAIN M M3 202 ASD PROBIKERS ITA 08:26:10 08:26:01 04:22:21 11.02
Servizio a cura di OTC SRL 29/07/2017 18:40 sigle giudici
[Link] - Classifiche e risultati su ENDU - [Link] Pagina 18 di 22
Classifica generale
[Link] FCI : 127491 Tipo di gara: (XCM N) Marathon
Organizzazione: 02K3574 ALTA VALTELLINA BIKE asd PROVVISORIA
pos pett. atleta sex cat. [Link] team naz race time real time gap medi
a
1029 896 LESSI GIANNI M M3 203 ASD TEAMBIKE [Link] ITA 08:26:10 08:26:03 04:22:21 11.02
1030 898 DONATI LUCA M M3 204 TEAM NOB JOLLYWEAR ITA 08:26:10 08:26:01 04:22:22 11.02
1031 897 MORETTI MANUEL M M3 205 TEAM BIKE [Link] ITA 08:26:10 08:26:03 04:22:22 11.02
1032 1142 FERRANTE CATALDO M M3 206 FREE ! MTB ITA 08:26:16 08:24:17 04:22:27 11.02
1033 717 BRUNETTI GABRIELE M M2 173 ASD CICLISMO MONTECCHIO ITA 08:26:37 08:26:04 04:22:49 11.01
1034 714 SIDERI PAOLO M M4 205 ASD CICLISMO MONTECCHIO ITA 08:26:37 08:26:07 04:22:49 11.01
1035 716 SAMBUCHI FRANCESCO M M3 207 ASD CICLISMO MONTECCHIO ITA 08:26:37 08:26:03 04:22:49 11.01
1036 1409 ABRUZZESE DAVIDE M M2 174 ITA 08:26:44 08:24:52 04:22:56 11.01
1037 1540 SBRIGHI ALESSIO M M2 175 HOBBY BIKE MTB ASD ITA 08:27:31 08:25:57 04:23:43 10.99
1038 1245 MONACELLI LORENZO M M4 206 HOBBY BIKE MTB ASD ITA 08:27:45 08:26:14 04:23:57 10.99
1039 1431 ARCA FRANCO M M5 139 ASD UC BORGHETTO ITA 08:28:04 08:27:14 04:24:16 10.98
1040 1050 CORTI MASSIMILIANO M M4 207 TEAM LA VERDE A.S.D. ITA 08:28:30 08:26:25 04:24:41 10.97
1041 408 BRAMANTE PAOLO M M3 208 VALSUSA RUNNING TEAM ASD ITA 08:28:46 08:28:17 04:24:57 10.97
1042 729 MORRONI ALESSANDRO M M4 208 TRIONO RACING MEDICAL ITA 08:28:46 08:28:02 04:24:57 10.97
FREM
1043 1009 SAMMARTANO TATIANA F EWS-W1 12 PB CARBOBIKE O'CLOCK ITA 08:28:57 08:27:41 04:25:09 10.96
1044 1523 BARRACO IGNAZIO M M6 68 PB CARBOBIKE O'CLOCK ITA 08:28:57 08:27:41 04:25:09 10.96
1045 1344 PEDERZOLI CLAUDIO M M5 140 TEAM SCULAZZO ITALIA ASD ITA 08:28:58 08:27:50 04:25:09 10.96
1046 1480 GIULIANI MICHELE M ELMT 81 POLISPORTIVA MONTEVEGLIO ITA 08:29:00 08:27:08 04:25:11 10.96
A.S.D.
1047 802 PAGGETTI ELEONORA F EWS-W1 13 GS POPPI ASD ITA 08:29:28 08:29:19 04:25:40 10.95
1048 866 MARTINI SIMONE M ELMT 82 GS POPPI ASD ITA 08:29:28 08:29:20 04:25:40 10.95
1049 1283 SEIA TOMMASO M M6 69 ALESSANDRO ERCOLE ITA 08:29:32 08:28:31 04:25:44 10.95
1050 1114 GILLIO ALBERTO M M4 209 ASD CICLISTICA CALUSIESE ITA 08:30:28 08:29:52 04:26:40 10.93
1051 1146 CORTI SILVANO M M7+ 17 U.C. ROBBIANO SALVARANI ITA 08:30:29 08:29:55 04:26:40 10.93
1052 1479 BIAVA MARCO M M2 176 CO2 ASD ITA 08:30:59 08:30:20 04:27:10 10.92
1053 1551 MANGIAGALLI ANDREA M M6 70 VELOCLUB SEGRATE ITA 08:31:46 08:30:40 04:27:58 10.90
1054 1115 DEMARTINI ENRICO M M1 87 ASD CICLISTICA CALUSIESE ITA 08:32:08 08:31:31 04:28:20 10.90
1055 1095 BIASIO GIANNI M M7+ 18 ASD VICENZA BIKE ITA 08:32:09 08:31:26 04:28:21 10.90
1056 1395 GHISELLI FABIO M M3 209 TRIAL BIKE ITA 08:32:35 08:32:02 04:28:46 10.89
1057 1367 PAOLOCCI ENRICO M M6 71 ASD CICLI ROSSI ITA 08:32:56 08:30:56 04:29:08 10.88
1058 1397 PALLADINO MAURIZIO M M5 141 TEAM CENTOXCENTOBICI ITA 08:33:03 08:31:53 04:29:15 10.88
1059 1157 PINTO PASQUALE M M5 142 CHIALA' CYCLING TEAM ITA 08:33:13 08:31:04 04:29:24 10.87
LOCOROTONDO
1060 1249 CAPELLI FULVIO M M1 88 A.S.D. BEVL - TEAM VARZI ITA 08:33:26 08:31:39 04:29:38 10.87
1061 843 CIUFFARELLA PIETRO M M5 143 VELOSPORT FERENTINO ITA 08:33:28 08:32:57 04:29:40 10.87
1062 572 NAPOLITANO CRISTIAN M M3 210 S.C. FAGNANO NUOVA ITA 08:34:37 08:34:10 04:30:48 10.84
1063 1113 CASERIO MARCO M M5 144 ASD CICLISTICA CALUSIESE ITA 08:34:40 08:34:01 04:30:51 10.84
1064 1116 BONINO SIMONE M M4 210 A.S.D. G. S. AVIS IVREA ITA 08:34:40 08:34:04 04:30:51 10.84
1065 890 CALVI ANDREA MARIO M M4 211 OLTREPO RIDERS CLUB ITA 08:35:07 08:34:39 04:31:19 10.83
1066 891 CURZI MARCO M M3 211 A.S.D. PEDALE LENTO STELLA ITA 08:35:09 08:35:03 04:31:21 10.83
1067 662 RANDAZZO VINCENZO M M4 212 A.S.D. RAZZULA SERPE TEAM ITA 08:35:27 08:34:59 04:31:38 10.83
BIKE
1068 692 PARISI FABRIZIO M M3 212 A.S.D. RAZZULA SERPE TEAM ITA 08:35:27 08:35:00 04:31:38 10.83
BIKE
1069 1239 ROMANO GAETANO M M3 213 ASD PANORMUS BIKE TEAM ITA 08:36:10 08:34:07 04:32:21 10.81
1070 1238 CIVILETTI MICHELE M M4 213 MTBEVENTISPORT ITA 08:36:10 08:34:07 04:32:21 10.81
1071 1495 MELI ORAZIO M M4 214 ITA 08:36:10 08:34:07 04:32:21 10.81
1072 341 SOVERINI ALBERTO M M3 214 A.S.D. RABBIT CYCLING TEAM ITA 08:36:19 08:35:51 04:32:30 10.81
1073 757 LUCATELLO GIOVANNI M M3 215 GS POPPI ASD ITA 08:36:22 08:35:42 04:32:33 10.81
1074 696 CATERINI EMIDIO M M3 216 MTB TERAMO ITA 08:36:25 08:35:26 04:32:36 10.81
1075 711 SCIAMANNA FABRIZIO M M4 215 MTB TERAMO ITA 08:36:25 08:35:24 04:32:36 10.81
1076 979 MAZZUCCHELLI MARCO M M3 217 GEMINI TEAM ITA 08:36:40 08:36:23 04:32:51 10.80
1077 1202 SAVEGNAGO ALBERTO M M2 177 6.9 TEAM ITA 08:36:59 08:34:49 04:33:11 10.79
1078 1352 TARALLO ALESSANDRO M M3 218 NAGAYE PROJECT - BIKE & ITA 08:37:01 08:36:15 04:33:13 10.79
RUN
1079 1472 BERTASI MARCO M M4 216 ITA 08:37:01 08:36:15 04:33:13 10.79
1080 358 ZAVATTA SILVIO M M2 178 TEAM DEL CAPITANO A.S.D. ITA 08:37:23 08:36:34 04:33:34 10.79
1081 1450 MASCHERONI LORENZO M M3 219 ITA 08:37:35 08:36:36 04:33:46 10.78
1082 525 ROSSI ANTONIO M M3 220 PROVIS BIKE ITA 08:38:04 08:37:46 04:34:16 10.77
1083 871 ARRICIATI ALESSANDRO M M4 217 GEMINI TEAM ITA 08:38:14 08:38:02 04:34:26 10.77
1084 903 MAINARDI ROBERTO M M6 72 ASD LE SALINE NATURA E ITA 08:39:12 08:38:50 04:35:24 10.75
SPORT
1085 1231 BULDRINI LAMBERTO M M5 145 ASD LE SALINE NATURA E ITA 08:39:12 08:37:57 04:35:24 10.75
SPORT
1086 1188 CASTELLUCCI STEFANO M M4 218 ITA 08:39:24 08:37:13 04:35:35 10.74
1087 1429 FALLINI ROBERTO M M3 221 U.S. CHIAVENNESE ITA 08:39:24 08:37:13 04:35:35 10.74
Servizio a cura di OTC SRL 29/07/2017 18:40 sigle giudici
[Link] - Classifiche e risultati su ENDU - [Link] Pagina 19 di 22
Classifica generale
[Link] FCI : 127491 Tipo di gara: (XCM N) Marathon
Organizzazione: 02K3574 ALTA VALTELLINA BIKE asd PROVVISORIA
pos pett. atleta sex cat. [Link] team naz race time real time gap medi
a
1088 1466 BALATTI MARCO M M1 89 ITA 08:39:24 08:37:19 04:35:35 10.74
1089 1062 BIA CORRADO M M6 73 S.C. [Link] A.S.D. ITA 08:40:32 08:39:20 04:36:43 10.72
1090 1012 ARRIGONI TIZIANO M M5 146 GEMINI TEAM ITA 08:41:46 08:40:06 04:37:58 10.69
1091 877 KOFINA HERITON M M2 179 ASD UPOL BIKE LUNGAVILLA ITA 08:41:52 08:41:28 04:38:04 10.69
1092 61 CASELLA GIUSEPPINA EVA F W2 10 A.S.D. RAZZULA SERPE TEAM ITA 08:42:00 08:41:44 04:38:11 10.69
BIKE
1093 449 CALORI ALESSANDRO M ELMT 83 TRICICLI MORCHIA ITA 08:42:12 08:41:50 04:38:24 10.69
1094 519 GUERRINI LUCA M M1 90 TRICICLI MORCHIA ITA 08:42:12 08:41:50 04:38:24 10.69
1095 1047 PUGLIESE EMANUELE M M2 180 ALL BLACKS BIKE ITA 08:42:20 08:40:32 04:38:32 10.68
1096 932 PAGGETTI MAURIZIO M M6 74 MANILA BIKE TEAM ITA 08:42:28 08:41:59 04:38:39 10.68
PROFESSIONAL A.S.D.
1097 837 LARI STEFANO M M5 147 TUTTO BIKE TEAM KONA ITA 08:42:28 08:42:22 04:38:39 10.68
1098 746 FABBRI MARCO M M5 148 ITA 08:42:30 08:42:00 04:38:41 10.68
1099 1025 PRINCI LUCA M M6 75 POL. CASTELLO LARI 1989 ITA 08:43:17 08:41:56 04:39:28 10.66
1100 606 RICCI ROSALINO M M1 91 MONTI GEMELLI BIKE ITA 08:44:24 08:43:30 04:40:35 10.64
1101 605 GIANNETTI ELIA M ELMT 84 MONTI GEMELLI BIKE ITA 08:44:24 08:43:30 04:40:36 10.64
1102 612 DI ANTONIO MARCO M ELMT 85 MONTI GEMELLI BIKE ITA 08:44:24 08:43:27 04:40:36 10.64
1103 607 DI EGIDIO DOMENICO M M2 181 MONTI GEMELLI BIKE ITA 08:44:24 08:43:31 04:40:36 10.64
1104 609 MALAVOLTA ANDREA M M2 182 MONTI GEMELLI BIKE ITA 08:44:25 08:43:30 04:40:36 10.64
1105 915 MANENTI MASSIMO M M4 219 ASD POLISPORTIVA ADRENSE ITA 08:44:52 08:44:45 04:41:03 10.63
CICLISMO
1106 1243 SELIGHINI GIANCARLO M M5 149 HOBBY BIKE MTB ASD ITA 08:45:26 08:43:52 04:41:37 10.62
1107 838 CUGGE AGOSTINO M M4 220 TEAM CINGHIALI MANNARI ITA 08:45:34 08:45:04 04:41:45 10.62
1108 549 PICCHI STEFANO M M5 150 ASD LE SALINE NATURA E ITA 08:46:06 08:45:57 04:42:18 10.61
SPORT
1109 559 CERESA ROBERTO M M5 151 GS FLORES FERRERA ITA 08:46:14 08:45:44 04:42:25 10.60
1110 550 CURADINI BRUNO M M2 183 S.C. VILLAFRANCA ITA 08:46:26 08:46:08 04:42:37 10.60
1111 1525 MATELLICANI ANDREA M M5 152 GEMINI TEAM ITA 08:46:45 08:45:01 04:42:56 10.59
1112 1023 SQUARCINI RICCARDO M M5 153 POL. CASTELLO LARI 1989 ITA 08:46:59 08:45:40 04:43:11 10.59
1113 861 CUCCI ENRICO M M2 184 ITA 08:47:18 08:47:00 04:43:30 10.58
1114 961 FIORINO ROBERTO M M4 221 ASD TEAM BIKE MARTINA ITA 08:47:25 08:47:01 04:43:36 10.58
FRANCA
1115 1019 LACARBONARA COSIMO M M2 185 CHIALA' CYCLING TEAM ITA 08:47:25 08:45:16 04:43:36 10.58
LOCOROTONDO
1116 957 CASAVOLA EMILIANO M M3 222 TEAM BIKE MARTINA FRANCA ITA 08:47:25 08:45:15 04:43:36 10.58
1117 964 PETRELLI COSIMO M M2 186 TEAM BIKE MARTINA FRANCA ITA 08:47:25 08:47:00 04:43:36 10.58
1118 966 CARTASEGNA MARCO M M4 222 RACING TEAM LA BICI ITA 08:48:00 08:46:56 04:44:12 10.57
ARQUATA SCRIVIA ASD
1119 1213 MEONI FULVIO M M5 154 ITA 08:50:42 08:49:17 04:46:53 10.51
1120 522 ARALDI GABRIELE M M3 223 ASD GAGABIKE TEAM ITA 08:51:58 08:51:24 04:48:09 10.49
1121 359 BERARDUCCI DANIELE M M5 155 ASD LE SALINE NATURA E ITA 08:52:38 08:51:59 04:48:50 10.48
SPORT
1122 355 CAVALLI ALVER M M3 224 ASD LE SALINE NATURA E ITA 08:52:39 08:52:00 04:48:50 10.48
SPORT
1123 132 MORRI MIRCO M M4 223 ASD LE SALINE NATURA E ITA 08:52:39 08:52:16 04:48:50 10.48
SPORT
1124 344 TRONI MASSIMO M M5 156 A.S.D. LE SALINE NATURA E ITA 08:52:39 08:52:00 04:48:51 10.48
SPORT
1125 1061 BOMBARDIERI PAOLO M M4 224 PMP RACING TEAM ITA 08:52:51 08:52:09 04:49:03 10.47
1126 1044 CALVANO MATTEO M M3 225 ASD HELLO BIKE SHOP TRANI ITA 08:53:03 08:51:05 04:49:15 10.47
1127 698 GUARDASCIONE DIEGO M M3 226 ASD VIGO BIKE ITA 08:53:41 08:52:45 04:49:53 10.46
1128 299 MEZZADRA VALTER M M7+ 19 A.S.D. OLTREBIKE TEAM ITA 08:55:18 08:54:38 04:51:30 10.42
1129 1297 PEZZONI ALESSIO M M4 225 DE RAN CLAB ITA 08:55:22 08:54:08 04:51:34 10.42
1130 1002 SPADARO GRANT VICTORIA F W2 11 TEAM LA VERDE A.S.D. USA 08:55:53 08:54:53 04:52:04 10.41
1131 1049 GRANT PAUL M M6 76 TEAM LA VERDE A.S.D. GBR 08:55:53 08:54:53 04:52:04 10.41
1132 1178 DETLEF BRUCKMLLER M M5 157 AUT 08:56:00 08:54:18 04:52:12 10.41
1133 516 PIZZETTI PAOLO M M6 77 TEAM DUEMME CORSE ASD ITA 08:56:07 08:55:32 04:52:19 10.41
1134 546 FORLIVESI MICHELE M M5 158 A.S.D. GRAMA ITA 08:56:54 08:56:29 04:53:06 10.39
1135 542 VALENTINI MICHELE M M4 226 A.S.D. GRAMA ITA 08:56:55 08:56:33 04:53:06 10.39
1136 543 FORTIBUONI GIANLUCA M M3 227 A.S.D. GRAMA ITA 08:56:55 08:56:28 04:53:06 10.39
1137 1529 GIULI ROBERTO M M5 159 ASD ALTA VALLE DEL ITA 08:57:04 08:56:32 04:53:15 10.39
POTENZA
1138 673 MADDALENA MARCO M M2 187 MTB RUOTE LIBERE ITA 08:57:10 08:56:10 04:53:21 10.39
FERENTINO
1139 1004 AMMAZZINI ANNUNZIATA F W2 12 A.S.D. DIEMME CICLI ITA 08:59:42 08:58:14 04:55:54 10.34
1140 1550 ROMANO' LUCA M M4 227 VELOCLUB SEGRATE ITA 08:59:43 08:58:36 04:55:55 10.34
1141 1471 SICILIANO MAURIZIO M M1 92 TMP RACING BIKE A.S.D. ITA 08:59:46 08:58:38 04:55:57 10.34
1142 1400 BAITO MASSIMO M M5 160 ASD RIDERS TEAM ITA 08:59:51 08:58:30 04:56:02 10.34
1143 1401 BERTOLANI ANDREA M M4 228 ASD RIDERS TEAM ITA 08:59:51 08:58:28 04:56:02 10.34
Servizio a cura di OTC SRL 29/07/2017 18:40 sigle giudici
[Link] - Classifiche e risultati su ENDU - [Link] Pagina 20 di 22
Classifica generale
[Link] FCI : 127491 Tipo di gara: (XCM N) Marathon
Organizzazione: 02K3574 ALTA VALTELLINA BIKE asd PROVVISORIA
pos pett. atleta sex cat. [Link] team naz race time real time gap medi
a
1144 1404 PAGANI GIOVANNI M M6 78 ASD RIDERS TEAM ITA 08:59:51 08:58:30 04:56:02 10.34
1145 346 LICINI MAURIZIO M M3 228 TEAM CYCLE CLASSIC ITA 09:00:07 08:59:28 04:56:19 10.33
1146 1304 CASELLA GIOVANNI M M3 229 A.S.D. SPORTINSIEME ITA 09:00:34 08:58:42 04:56:45 10.32
BATTISTA
1147 1128 COMERIO GIORGIO M M6 79 TEAM VISCARDI A.S.D. ITA 09:00:34 09:00:34 04:56:46 10.32
1148 1303 TELANI ANDREA M M3 230 A.S.D. SPORTINSIEME ITA 09:00:34 08:58:44 04:56:46 10.32
1149 1216 SALVI FABIO M ELMT 86 ITA 09:00:54 08:59:55 04:57:06 10.32
1150 1196 LOFRANO COSIMO M M2 188 TEAM LA VERDE A.S.D. ITA 09:01:33 08:59:29 04:57:45 10.30
SALVATORE
1151 1197 PONZO DAVID M M4 229 TEAMBOTA MTB CLUB ITA 09:01:33 08:59:29 04:57:45 10.30
1152 608 CASTAGNOLI LUCA M ELMT 87 MONTI GEMELLI BIKE ITA 09:01:36 09:00:39 04:57:47 10.30
1153 839 MUCIACCIA VINCENZO M M3 231 ASD HELLO BIKE SHOP TRANI ITA 09:02:19 09:02:00 04:58:30 10.29
1154 1242 BAZZOCCHI AFRICO M M5 161 HOBBY BIKE MTB ASD ITA 09:02:22 09:00:49 04:58:33 10.29
1155 1289 PARENTE ROBERTO M M6 80 A.S.D. VELO CLUB RODIGO ITA 09:02:25 09:00:24 04:58:37 10.29
1156 835 BRACCIALE LUIGI M M5 162 GS VALMAIURA FONDI ITA 09:02:41 09:02:26 04:58:52 10.28
1157 676 MASSARI LUIGI M M5 163 APD CIOCIARIA BIKE ITA 09:02:51 09:01:45 04:59:03 10.28
1158 1268 MICANTI MARCO M M5 164 TRIONO RACING MEDICAL ITA 09:03:31 09:02:27 04:59:42 10.27
FREM
1159 1459 LOVERO DONATO M M6 81 A.S.D. GREEN DEVILS TEAM ITA 09:03:58 09:03:10 05:00:10 10.26
1160 1234 ARMANNI DANIELE M ELMT 88 MTB PARRE ITA 09:04:40 09:02:57 05:00:51 10.25
1161 420 MAFALE GIUSEPPE M M5 165 ASD HGV RACING CICLI ITA 09:05:39 09:04:13 05:01:50 10.23
CONTE FANS BIKE
1162 1184 SCATASSA SIMONE M M3 232 FREEDOM BIKE A.S.D. ITA 09:05:45 09:04:28 05:01:57 10.22
1163 1360 BERTI MICHAEL M ELMT 89 ITA 09:05:48 09:04:39 05:01:59 10.22
1164 1545 NORDI LUCA M M4 230 ITA 09:05:49 09:04:04 05:02:00 10.22
1165 1221 DELLA MARTERA LUCA M M2 189 FREEDOM BIKE A.S.D. ITA 09:05:58 09:04:41 05:02:10 10.22
1166 523 CALONEGO GIANLUCA M M3 233 BIKE DIRECTION RACING TEAM ITA 09:06:58 09:06:42 05:03:10 10.20
A.S.D.
1167 459 TURCI DANIELE M M7+ 20 SPORT TIME S.S.D. A R.L. ITA 09:07:01 09:06:39 05:03:13 10.20
1168 1214 VATTERONI SIMONE M M2 190 G.S. BAGLINI CENTRALKIMICA ITA 09:08:03 09:06:52 05:04:14 10.18
ASD
1169 1107 DELLA BELLA DAVIDE M M2 191 TEAM RAM BIKE ITA 09:09:09 09:07:19 05:05:20 10.16
1170 970 CARUSO LUCIANO M M5 166 ITA 09:09:18 09:09:04 05:05:30 10.16
1171 1135 ROZZI MARCO M M5 167 GS CROCE VERDE ORZINUOVI ITA 09:09:21 09:08:26 05:05:32 10.16
1172 1137 BERNOCCHI DANIELE M M5 168 ASD CICLI PRIORI ITA 09:09:21 09:08:27 05:05:32 10.16
1173 1085 CAMPORA ILARIO M M2 192 A.S.D. BIKERS TEAM ITA 09:10:57 09:09:34 05:07:09 10.13
LIVELLATO
1174 648 COI ANDREA M M5 169 ASD MTB A CASA VECIA ITA 09:11:32 09:10:44 05:07:44 10.12
1175 767 D'AMORA ANDREA M M2 193 ASD SESSANTALLORA ITA 09:12:41 09:11:48 05:08:53 10.10
1176 653 BRIGNOLO ANDREA M M6 82 ITA 09:12:53 09:12:06 05:09:05 10.09
1177 914 CONTI GRAZIANO M M6 83 ASD POLISPORTIVA ADRENSE ITA 09:13:41 09:13:34 05:09:53 10.08
CICLISMO
1178 404 NERI ROMINA F W2 13 A.S.D. GRAMA ITA 09:14:19 09:13:56 05:10:31 10.07
1179 745 SORANNO ANTONIO M M5 170 ASD NUOVA ATHENA CLUB ITA 09:16:11 09:15:22 05:12:23 10.03
2002
1180 759 MAGNI MARCO M M4 231 GS POPPI ASD ITA 09:16:35 09:15:53 05:12:47 10.03
1181 758 MARTINI FEDERICO M M2 194 GS POPPI ASD ITA 09:16:36 09:15:55 05:12:47 10.03
1182 481 TOCCHELLA DOMENICO M M5 171 RS BIKE ITA 09:18:08 09:17:57 05:14:19 10.00
1183 482 TURRA MASSIMO M M2 195 RS BIKE ITA 09:18:08 09:17:57 05:14:19 10.00
1184 881 CONTUZZI VITO M M4 232 ASD [Link] ITA 09:18:51 09:17:20 05:15:02 9.99
1185 615 BRANDOLINI MAURIZIO M M6 84 ADVENTURE TEAM ITA 09:19:26 09:18:39 05:15:37 9.97
1186 947 ARMANINI LUCA M ELMT 90 A.S.D. VELO CLUB RODIGO ITA 09:19:50 09:19:27 05:16:01 9.97
1187 1236 CHIOZZA ENRICO M M6 85 ASD RACING TEAM LA BICI ITA 09:21:01 09:19:56 05:17:12 9.95
1188 965 FILIPPIN LUIGI M M6 86 RACING TEAM LA BICI ITA 09:21:45 09:20:44 05:17:57 9.93
ARQUATA SCRIVIA ASD
1189 893 SPINOZZI RENATO M M5 172 A.S.D. PEDALE LENTO STELLA ITA 09:23:28 09:23:21 05:19:40 9.90
1190 678 MARINI DIONINO M M5 173 A.S.D.C. VALLE DEL CONCA ITA 09:23:38 09:22:55 05:19:50 9.90
NORDIC WALKING
1191 496 BENZI LUCA M M6 87 TEAM BORGHI RANCING ASD ITA 09:23:45 09:23:22 05:19:57 9.90
1192 521 PAOLICELLI VINCENZO M M5 174 ASD GS VERDELLINO ITA 09:26:26 09:26:11 05:22:38 9.85
1193 1064 MOROTTI LUCA M M3 234 360 BIKE TEAM ITA 09:26:32 09:25:39 05:22:43 9.85
1194 730 MARIOTTI CARLO M M3 235 TRIONO RACING MEDICAL ITA 09:26:46 09:26:02 05:22:58 9.85
FREM
1195 479 ECLITTI GIOVANNI M M5 175 A.S.D. MTB GROUP ITA 09:28:13 09:27:59 05:24:25 9.82
TRITAKATENE
1196 864 SCOZIA DARIO M M4 233 ASD VELO CLUB 13 ITA 09:30:58 09:30:27 05:27:10 9.77
1197 883 CERESA CHRISTIAN M M4 234 ASD VELO CLUB 13 ITA 09:30:58 09:30:26 05:27:10 9.77
1198 1100 BIANCHINI MATTEO M M2 196 G.C. CAPODARCO-COMUNITA' ITA 09:33:31 09:31:55 05:29:43 9.73
1199 1194 CICCONI NICOLAI M M3 236 ROYAL BIKE ITA 09:33:32 09:31:55 05:29:43 9.73
Servizio a cura di OTC SRL 29/07/2017 18:40 sigle giudici
[Link] - Classifiche e risultati su ENDU - [Link] Pagina 21 di 22
Classifica generale
[Link] FCI : 127491 Tipo di gara: (XCM N) Marathon
Organizzazione: 02K3574 ALTA VALTELLINA BIKE asd PROVVISORIA
pos pett. atleta sex cat. [Link] team naz race time real time gap medi
a
1200 1112 SIMI LUCIANO M M6 88 A.S.D. DIEMME CICLI ITA 09:34:19 09:32:51 05:30:31 9.72
1201 1226 BOVO STEFANO M M4 235 I VELOCIPEDI ITA 09:34:40 09:33:00 05:30:52 9.71
1202 902 SBRAGION MASSIMO M M4 236 EASY RIDE ITA 09:37:23 09:36:58 05:33:34 9.66
1203 905 DITILLO ANDREA M M5 176 EASY RIDE ITA 09:37:23 09:36:58 05:33:34 9.66
1204 1016 BACCI WALTER M M4 237 ASD GRAMS BIKE ITA 09:40:00 09:39:03 05:36:11 9.62
1205 1001 BERANZONI MOIRA F EWS-W1 14 ASD GRAMS BIKE ITA 09:40:00 09:39:03 05:36:11 9.62
1206 1017 PETRINI ANDREA M M4 238 ASD GRAMS BIKE ITA 09:40:00 09:39:02 05:36:11 9.62
1207 1018 POLZONETTI EMANUELE M M4 239 ASD GRAMS BIKE ITA 09:40:00 09:39:03 05:36:11 9.62
1208 1451 BIANCHESSI DAVID M M2 197 ASD KULAMULA MTB ITA 09:40:04 09:38:24 05:36:15 9.62
CREMONA
1209 1333 ROSSETTI GIAN CARLO M M6 89 TEAM LA VERDE A.S.D. ITA 09:40:28 09:38:12 05:36:39 9.61
1210 1232 SANTI FRANCO M M5 177 BHS TEAM A.S.D. ITA 09:41:49 09:40:12 05:38:01 9.59
1211 507 DI MODUGNO ROBERTO M M3 237 GC AMATORI AVIS RUVO DI ITA 09:42:20 09:41:56 05:38:32 9.58
PUGLIA
1212 1020 NARDELLI GRAZIANO M M2 198 CHIALA' CYCLING TEAM ITA 09:43:55 09:41:45 05:40:06 9.56
LOCOROTONDO
1213 1189 ARCHI DAVIDE M M3 238 PROFI BIKE TEAM ITA 09:44:16 09:42:49 05:40:27 9.55
1214 510 MINTRONE DOMENICO M M5 178 FREE ! MTB ITA 09:46:02 09:45:39 05:42:13 9.52
1215 455 MAGNANI ERMES M M6 90 SPORT TIME S.S.D. A R.L. ITA 09:48:34 09:48:15 05:44:46 9.48
1216 1519 ARGIOLAS SILVANO M M5 179 ROCK & ROAD BIKE FRT ITA 09:50:33 09:48:28 05:46:44 9.45
1217 1015 NINO FERNANDO M M5 180 ITA 09:53:04 09:50:50 05:49:16 9.41
1218 950 PAGGIO GIAN LUCA M M4 240 ASD MYG CYCLING TEAM ITA 09:53:04 09:52:28 05:49:16 9.41
1219 817 BORDINI ROBERTO M M7+ 21 SC PEDALE BIANCONERO ITA 09:53:27 09:53:03 05:49:39 9.40
LUGO ASD
1220 1368 PIZIO MARCO M M4 241 RAMPICHINO TEAM ITA 09:53:44 09:51:58 05:49:56 9.40
1221 1155 L'ABATE ANTONIO M M6 91 CHIALA' CYCLING TEAM ITA 10:01:39 10:00:40 05:57:50 9.27
GENNARO LOCOROTONDO
1222 1176 MARINELLI ANDREA M M1 93 ASD Pedale Stracco Fabriano ITA 10:05:03 10:03:00 06:01:15 9.22
Presidente Agerato Giovanni
Giudice d'arrivo Colalongo Remo
Leggi questo codice con il tuo
telefono per accedere alla Il giudice
classifica on-line
Servizio a cura di OTC SRL 29/07/2017 18:40
[Link] - Classifiche e risultati su ENDU - [Link] Pagina 22 di 22